Dirección General De Aeronáutica Civil

Dirección Meteorológica de Chile - Servicios Climáticos

Informe General de Control de Calidad de la Estación

Listado de niveles de control de calidad para algunos parámetros
Estación Hualpencillo (360905)
Fecha de Revisión de los datos :

Elementos

Registros Niveles de Control Total
Nivel 0 Nivel 1 Nivel 2 Nivel 3 Errores Porcentaje
01 Temperatura del Aire Seco 53.599 0 . 992 1.85 % 0 . 0 . 992 1.85 %
02 Temperatura de Rocío 47.000 2 0.00 % 0 . 0 . 0 . 2 0.00 %
03 Humedad Relativa del Aire 40.830 0 . 0 . 0 . 0 . 0 0.00 %
04 Temperatura Máxima PM 4.100 0 . 0 . 91 2.22 % 0 . 91 2.22 %
05 Temperatura Mínima AM 4.501 1 0.02 % 0 . 70 1.56 % 0 . 71 1.58 %
06 Viento a 10 m. de Altura 53.600 0 . 3 0.01 % 3 0.01 % 0 . 6 0.01 %
07 Agua Caida, Acumulada 6 Horas 11.581 0 . 0 . 0 . 0 . 0 0.00 %
08 Presión Atm. a Nivel de Estación (QFE) 0 0 . 0 . 0 . 0 . 0 .
09 Presión Atm. a Nivel Medio del Mar (QFF) 34.572 5 0.01 % 0 . 0 . 0 . 5 0.01 %
10 Tiempo Pasado Sinóptico 1.706 0 . 0 . 0 . 0 . 0 0.00 %
11 Tiempo Presente Sinóptico 45.930 0 . 9 0.02 % 0 . 0 . 9 0.02 %

Totales

297.419 . 0.0027 % . 0.3376 % . 0.0551 % . 0.0000 % 1,176 0.3954 %

Detalle de Errores Encontrados

Nivel Fecha del Dato Descripción Información Error Fecha Ingreso
0 1955-05-13 19:00:00 qff (Presión a nivel del Mar) debe ser numérico, entre 300 y 1100 116.4 2020-01-29 15:56:00
0 1955-09-19 22:00:00 qff (Presión a nivel del Mar) debe ser numérico, entre 300 y 1100 106.9 2020-03-04 20:33:00
0 1955-10-16 15:00:00 qff (Presión a nivel del Mar) debe ser numérico, entre 300 y 1100 102.2 2020-03-09 12:30:00
0 1959-04-07 06:00:00 qff (Presión a nivel del Mar) debe ser numérico, entre 300 y 1100 110.0 2019-12-12 13:34:00
0 1959-04-23 11:00:00 qff (Presión a nivel del Mar) debe ser numérico, entre 300 y 1100 110.7 2019-12-13 14:48:00
0 1955-09-25 12:00:00 Td (Temperatura Del Punto de Rocio) debe ser numérico, entre -50.0 y 50.0 65.0
0 1959-05-25 11:00:00 Td (Temperatura Del Punto de Rocio) debe ser numérico, entre -50.0 y 50.0 69.0
0 1965-02-23 12:00:00 TN (Temperatura Mínima AM) debe ser numérico, entre -50 y 50 93.0 2020-11-13 19:39:00
Errores del Nivel 8
Nivel Fecha del Dato Descripción Información Error Fecha Ingreso
1 1951-01-31 11:00:00 Ts debe ser mayor o igual a Td Ts=14.0 - Td=15.0 2020-03-11 14:18:00
1 1951-03-26 12:00:00 Ts debe ser mayor o igual a Td Ts=12.0 - Td=12.5 2020-03-16 14:09:00
1 1951-03-26 23:00:00 Ts debe ser mayor o igual a Td Ts=17.0 - Td=22.0 2020-03-16 14:09:00
1 1951-04-10 12:00:00 Ts debe ser mayor o igual a Td Ts=1.0 - Td=1.1 2020-03-16 18:12:00
1 1951-04-25 14:00:00 Ts debe ser mayor o igual a Td Ts=12.0 - Td=13.0 2020-03-17 14:52:00
1 1951-05-03 18:00:00 Ts debe ser mayor o igual a Td Ts=15.0 - Td=15.1 2020-03-18 11:49:00
1 1951-05-03 23:00:00 Ts debe ser mayor o igual a Td Ts=14.0 - Td=14.1 2020-03-18 11:49:00
1 1951-05-07 12:00:00 Ts debe ser mayor o igual a Td Ts=4.0 - Td=4.1 2020-03-18 12:44:00
1 1951-05-10 12:00:00 Ts debe ser mayor o igual a Td Ts=14.0 - Td=14.1 2020-03-18 13:21:00
1 1951-05-27 12:00:00 Ts debe ser mayor o igual a Td Ts=12.0 - Td=12.2 2020-03-19 11:45:00
1 1951-05-31 12:00:00 Ts debe ser mayor o igual a Td Ts=11.0 - Td=11.2 2020-03-19 12:36:00
1 1951-06-15 12:00:00 Ts debe ser mayor o igual a Td Ts=7.0 - Td=8.9 2020-03-20 12:10:00
1 1951-06-18 12:00:00 Ts debe ser mayor o igual a Td Ts=10.0 - Td=10.1 2020-03-20 13:44:00
1 1951-06-21 12:00:00 Ts debe ser mayor o igual a Td Ts=12.0 - Td=12.2 2020-03-20 14:17:00
1 1951-06-24 12:00:00 Ts debe ser mayor o igual a Td Ts=1.0 - Td=1.2 2020-03-20 16:01:00
1 1951-06-30 12:00:00 Ts debe ser mayor o igual a Td Ts=11.0 - Td=11.4 2020-03-20 19:22:00
1 1951-07-12 14:00:00 Ts debe ser mayor o igual a Td Ts=12.1 - Td=12.4 2020-03-23 15:28:00
1 1951-07-12 17:00:00 Ts debe ser mayor o igual a Td Ts=13.2 - Td=13.3 2020-03-23 15:28:00
1 1951-07-14 22:00:00 Ts debe ser mayor o igual a Td Ts=12.4 - Td=12.5 2020-03-23 15:54:00
1 1951-08-05 12:00:00 Ts debe ser mayor o igual a Td Ts=12.0 - Td=12.1 2020-03-24 20:29:00
1 1951-08-18 18:00:00 Ts debe ser mayor o igual a Td Ts=13.0 - Td=13.5 2020-03-25 16:21:00
1 1951-11-19 12:00:00 Ts debe ser mayor o igual a Td Ts=2.0 - Td=8.0 2020-03-31 15:26:00
1 1952-02-24 11:00:00 Ts debe ser mayor o igual a Td Ts=13.0 - Td=13.1 2020-01-27 18:10:00
1 1952-03-15 18:00:00 Ts debe ser mayor o igual a Td Ts=17.0 - Td=19.0 2020-01-28 13:46:00
1 1952-05-03 18:00:00 Ts debe ser mayor o igual a Td Ts=2.0 - Td=11.0 2020-01-30 12:34:00
1 1952-06-05 19:00:00 Ts debe ser mayor o igual a Td Ts=11.5 - Td=12.0 2020-01-31 12:39:00
1 1952-07-21 10:00:00 Ts debe ser mayor o igual a Td Ts=3.0 - Td=5.0 2020-02-03 19:14:00
1 1952-07-29 10:00:00 Ts debe ser mayor o igual a Td Ts=7.0 - Td=7.6 2020-02-04 12:27:00
1 1952-09-25 13:00:00 Ts debe ser mayor o igual a Td Ts=6.5 - Td=8.0 2020-02-05 19:33:00
1 1952-10-01 10:00:00 HR (Humedad Relativa) es igual a 100% y Ts <> Td 10.0 - 9.0 2020-02-06 13:44:00
1 1952-10-01 12:00:00 HR (Humedad Relativa) es igual a 100% y Ts <> Td 10.0 - 9.0 2020-02-06 13:44:00
1 1952-10-01 13:00:00 HR (Humedad Relativa) es igual a 100% y Ts <> Td 10.0 - 9.0 2020-02-06 13:44:00
1 1952-10-03 10:00:00 HR (Humedad Relativa) es igual a 100% y Ts <> Td 13.0 - 12.0 2020-02-06 14:18:00
1 1952-10-03 11:00:00 HR (Humedad Relativa) es igual a 100% y Ts <> Td 13.0 - 12.0 2020-02-06 14:18:00
1 1952-10-03 12:00:00 HR (Humedad Relativa) es igual a 100% y Ts <> Td 12.0 - 11.0 2020-02-06 14:20:00
1 1952-10-03 13:00:00 HR (Humedad Relativa) es igual a 100% y Ts <> Td 13.0 - 12.0 2020-02-06 14:18:00
1 1952-10-03 22:00:00 HR (Humedad Relativa) es igual a 100% y Ts <> Td 13.5 - 13.0 2020-02-06 14:18:00
1 1952-10-03 23:00:00 HR (Humedad Relativa) es igual a 100% y Ts <> Td 13.0 - 12.0 2020-02-06 14:18:00
1 1952-10-04 10:00:00 HR (Humedad Relativa) es igual a 100% y Ts <> Td 12.5 - 11.0 2020-02-06 15:02:00
1 1952-10-04 11:00:00 HR (Humedad Relativa) es igual a 100% y Ts <> Td 12.0 - 11.0 2020-02-06 15:02:00
1 1952-10-04 12:00:00 HR (Humedad Relativa) es igual a 100% y Ts <> Td 12.5 - 12.0 2020-02-06 15:02:00
1 1952-10-04 15:00:00 HR (Humedad Relativa) es igual a 100% y Ts <> Td 12.0 - 11.0 2020-02-06 15:02:00
1 1952-10-04 16:00:00 HR (Humedad Relativa) es igual a 100% y Ts <> Td 12.5 - 11.0 2020-02-06 15:02:00
1 1952-10-04 17:00:00 HR (Humedad Relativa) es igual a 100% y Ts <> Td 12.5 - 11.5 2020-02-06 15:02:00
1 1952-10-06 12:00:00 HR (Humedad Relativa) es igual a 100% y Ts <> Td 11.0 - 10.0 2020-02-06 15:26:00
1 1952-10-07 11:00:00 HR (Humedad Relativa) es igual a 100% y Ts <> Td 8.0 - 7.0 2020-02-06 18:22:00
1 1952-10-07 12:00:00 HR (Humedad Relativa) es igual a 100% y Ts <> Td 9.0 - 8.0 2020-02-06 18:22:00
1 1952-10-07 13:00:00 HR (Humedad Relativa) es igual a 100% y Ts <> Td 11.0 - 10.0 2020-02-06 18:22:00
1 1952-10-08 13:00:00 HR (Humedad Relativa) es igual a 100% y Ts <> Td 10.5 - 9.0 2020-02-06 18:32:00
1 1952-10-08 14:00:00 HR (Humedad Relativa) es igual a 100% y Ts <> Td 10.5 - 9.0 2020-02-06 18:32:00
1 1952-10-08 17:00:00 HR (Humedad Relativa) es igual a 100% y Ts <> Td 11.5 - 10.0 2020-02-06 18:32:00
1 1952-10-08 18:00:00 HR (Humedad Relativa) es igual a 100% y Ts <> Td 12.0 - 11.0 2020-02-06 18:32:00
1 1952-10-08 19:00:00 HR (Humedad Relativa) es igual a 100% y Ts <> Td 12.5 - 10.0 2020-02-06 18:32:00
1 1952-10-08 20:00:00 HR (Humedad Relativa) es igual a 100% y Ts <> Td 12.0 - 10.0 2020-02-06 18:32:00
1 1952-10-08 21:00:00 HR (Humedad Relativa) es igual a 100% y Ts <> Td 11.5 - 11.0 2020-02-06 18:32:00
1 1952-10-08 22:00:00 HR (Humedad Relativa) es igual a 100% y Ts <> Td 11.0 - 10.0 2020-02-06 18:32:00
1 1952-10-08 23:00:00 HR (Humedad Relativa) es igual a 100% y Ts <> Td 12.0 - 11.0 2020-02-06 18:32:00
1 1952-10-09 10:00:00 HR (Humedad Relativa) es igual a 100% y Ts <> Td 5.0 - 4.0 2020-02-06 18:38:00
1 1952-10-09 11:00:00 HR (Humedad Relativa) es igual a 100% y Ts <> Td 5.0 - 4.0 2020-02-06 18:38:00
1 1952-10-11 12:00:00 HR (Humedad Relativa) es igual a 100% y Ts <> Td 7.0 - 6.0 2020-02-06 18:56:00
1 1952-10-13 12:00:00 HR (Humedad Relativa) es igual a 100% y Ts <> Td 9.0 - 8.0 2020-02-06 19:09:00
1 1952-10-14 11:00:00 HR (Humedad Relativa) es igual a 100% y Ts <> Td 9.0 - 8.0 2020-02-06 19:21:00
1 1952-10-14 12:00:00 HR (Humedad Relativa) es igual a 100% y Ts <> Td 10.5 - 9.0 2020-02-06 19:21:00
1 1952-10-14 13:00:00 HR (Humedad Relativa) es igual a 100% y Ts <> Td 11.0 - 9.0 2020-02-06 19:21:00
1 1952-10-16 11:00:00 HR (Humedad Relativa) es igual a 100% y Ts <> Td 8.5 - 7.0 2020-02-06 19:43:00
1 1952-10-16 12:00:00 HR (Humedad Relativa) es igual a 100% y Ts <> Td 9.0 - 8.0 2020-02-06 19:43:00
1 1952-10-16 13:00:00 HR (Humedad Relativa) es igual a 100% y Ts <> Td 10.6 - 10.0 2020-02-06 19:43:00
1 1952-10-17 10:00:00 HR (Humedad Relativa) es igual a 100% y Ts <> Td 4.9 - 4.0 2020-02-06 19:55:00
1 1952-10-17 11:00:00 HR (Humedad Relativa) es igual a 100% y Ts <> Td 5.0 - 4.0 2020-02-06 19:55:00
1 1952-10-17 12:00:00 HR (Humedad Relativa) es igual a 100% y Ts <> Td 7.0 - 6.0 2020-02-06 19:55:00
1 1952-10-17 13:00:00 HR (Humedad Relativa) es igual a 100% y Ts <> Td 9.5 - 9.0 2020-02-06 19:55:00
1 1952-10-18 13:00:00 HR (Humedad Relativa) es igual a 100% y Ts <> Td 10.5 - 9.0 2020-02-07 12:44:00
1 1952-10-19 10:00:00 HR (Humedad Relativa) es igual a 100% y Ts <> Td 6.0 - 5.0 2020-02-07 12:53:00
1 1952-10-19 11:00:00 HR (Humedad Relativa) es igual a 100% y Ts <> Td 6.0 - 5.0 2020-02-07 12:53:00
1 1952-10-19 12:00:00 HR (Humedad Relativa) es igual a 100% y Ts <> Td 9.0 - 8.0 2020-02-07 12:53:00
1 1952-10-20 10:00:00 HR (Humedad Relativa) es igual a 100% y Ts <> Td 10.0 - 8.0 2020-02-07 13:18:00
1 1952-10-20 11:00:00 HR (Humedad Relativa) es igual a 100% y Ts <> Td 10.0 - 8.0 2020-02-07 13:18:00
1 1952-10-20 12:00:00 HR (Humedad Relativa) es igual a 100% y Ts <> Td 10.0 - 9.0 2020-02-07 13:18:00
1 1952-10-20 13:00:00 HR (Humedad Relativa) es igual a 100% y Ts <> Td 11.0 - 10.0 2020-02-07 13:18:00
1 1952-10-21 12:00:00 HR (Humedad Relativa) es igual a 100% y Ts <> Td 11.0 - 10.0 2020-02-07 13:24:00
1 1952-10-22 10:00:00 HR (Humedad Relativa) es igual a 100% y Ts <> Td 5.5 - 5.0 2020-02-07 13:31:00
1 1952-10-22 11:00:00 HR (Humedad Relativa) es igual a 100% y Ts <> Td 6.0 - 5.0 2020-02-07 13:31:00
1 1952-10-23 12:00:00 HR (Humedad Relativa) es igual a 100% y Ts <> Td 10.0 - 9.0 2020-02-07 13:37:00
1 1952-10-25 10:00:00 HR (Humedad Relativa) es igual a 100% y Ts <> Td 10.0 - 9.0 2020-02-07 13:53:00
1 1952-10-25 11:00:00 HR (Humedad Relativa) es igual a 100% y Ts <> Td 10.0 - 9.0 2020-02-07 13:53:00
1 1952-10-26 10:00:00 HR (Humedad Relativa) es igual a 100% y Ts <> Td 7.5 - 7.0 2020-02-07 14:00:00
1 1952-10-27 12:00:00 HR (Humedad Relativa) es igual a 100% y Ts <> Td 8.0 - 7.0 2020-02-07 14:05:00
1 1953-01-06 10:00:00 HR (Humedad Relativa) es igual a 100% y Ts <> Td 15.5 - 15.0 2013-12-06 14:19:00
1 1953-01-06 11:00:00 HR (Humedad Relativa) es igual a 100% y Ts <> Td 15.5 - 15.0 2013-12-06 14:19:00
1 1953-02-18 17:00:00 Ts debe ser mayor o igual a Td Ts=19.5 - Td=19.7 2013-12-09 17:29:00
1 1953-04-25 23:00:00 HR (Humedad Relativa) es igual a 100% y Ts <> Td 14.0 - 12.0 2013-12-12 17:53:00
1 1953-04-30 11:00:00 Ts debe ser mayor o igual a Td Ts=8.0 - Td=8.1 2013-12-12 19:27:00
1 1953-05-05 15:00:00 Ts debe ser mayor o igual a Td Ts=14.3 - Td=14.5 2013-12-12 20:26:00
1 1953-05-25 23:00:00 Ts debe ser mayor o igual a Td Ts=13.0 - Td=13.1 2013-12-16 19:23:00
1 1953-06-06 21:00:00 HR (Humedad Relativa) es igual a 100% y Ts <> Td 12.6 - 12.0 2013-12-17 19:02:00
1 1954-03-25 16:00:00 Ts debe ser mayor o igual a Td Ts=15.5 - Td=17.0 2020-02-12 13:31:00
1 1954-03-30 10:00:00 HR (Humedad Relativa) es igual a 100% y Ts <> Td 12.0 - 11.7 2020-02-12 17:03:00
1 1954-04-26 11:00:00 HR (Humedad Relativa) es igual a 100% y Ts <> Td 9.7 - 9.4 2020-02-14 12:41:00
1 1954-06-10 10:00:00 Ts debe ser mayor o igual a Td Ts=11.0 - Td=11.4 2020-02-18 15:25:00
1 1954-06-30 10:00:00 Ts debe ser mayor o igual a Td Ts=0.5 - Td=3.1 2020-02-19 18:19:00
1 1954-07-06 12:00:00 Ts debe ser mayor o igual a Td Ts=8.0 - Td=8.1 2020-02-19 19:13:00
1 1954-07-18 12:00:00 HR (Humedad Relativa) es igual a 100% y Ts <> Td 5.0 - 3.2 2020-02-20 14:34:00
1 1954-08-23 15:00:00 HR (Humedad Relativa) es igual a 100% y Ts <> Td 11.5 - 9.6 2020-02-21 15:55:00
1 1954-08-26 12:00:00 Ts debe ser mayor o igual a Td Ts=9.0 - Td=9.1 2020-02-21 17:47:00
1 1955-05-09 10:00:00 HR (Humedad Relativa) es igual a 100% y Ts <> Td 9.0 - 7.0 2020-01-29 12:58:00
1 1955-08-18 11:00:00 Ts debe ser mayor o igual a Td Ts=0.6 - Td=0.8 2020-02-13 14:13:00
1 1955-09-25 12:00:00 Ts debe ser mayor o igual a Td Ts=7.5 - Td=65.0 2020-03-05 14:00:00
1 1955-09-27 11:00:00 Ts debe ser mayor o igual a Td Ts=9.0 - Td=9.3 2020-03-05 15:00:00
1 1955-09-27 11:00:00 HR (Humedad Relativa) es igual a 100% y Ts <> Td 9.0 - 9.3 2020-03-05 15:00:00
1 1956-01-03 10:00:00 Ts debe ser mayor o igual a Td Ts=11.0 - Td=11.3 2020-03-03 14:25:00
1 1956-01-03 10:00:00 HR (Humedad Relativa) es igual a 100% y Ts <> Td 11.0 - 11.3 2020-03-03 14:25:00
1 1956-01-13 20:00:00 Ts debe ser mayor o igual a Td Ts=14.5 - Td=15.0 2020-03-03 20:09:00
1 1956-01-13 20:00:00 HR (Humedad Relativa) es igual a 100% y Ts <> Td 14.5 - 15.0 2020-03-03 20:09:00
1 1956-01-14 10:00:00 HR (Humedad Relativa) es igual a 100% y Ts <> Td 10.5 - 10.1 2020-03-03 20:22:00
1 1956-01-16 09:00:00 HR (Humedad Relativa) es igual a 100% y Ts <> Td 8.7 - 8.3 2020-03-04 12:37:00
1 1956-01-16 11:00:00 HR (Humedad Relativa) es igual a 100% y Ts <> Td 8.2 - 7.8 2020-03-04 12:37:00
1 1956-01-25 08:00:00 HR (Humedad Relativa) es igual a 100% y Ts <> Td 10.5 - 10.1 2020-03-04 17:06:00
1 1956-01-26 10:00:00 HR (Humedad Relativa) es igual a 100% y Ts <> Td 9.2 - 8.8 2020-03-04 17:13:00
1 1956-01-28 09:00:00 HR (Humedad Relativa) es igual a 100% y Ts <> Td 10.0 - 9.6 2020-03-04 18:58:00
1 1956-01-30 10:00:00 Ts debe ser mayor o igual a Td Ts=10.5 - Td=11.0 2020-03-04 19:23:00
1 1956-01-30 10:00:00 HR (Humedad Relativa) es igual a 100% y Ts <> Td 10.5 - 11.0 2020-03-04 19:23:00
1 1956-02-15 10:00:00 Ts debe ser mayor o igual a Td Ts=10.0 - Td=10.4 2020-03-05 19:32:00
1 1956-02-15 10:00:00 HR (Humedad Relativa) es igual a 100% y Ts <> Td 10.0 - 10.4 2020-03-05 19:32:00
1 1958-06-03 12:00:00 Ts debe ser mayor o igual a Td Ts=2.8 - Td=4.4 2019-12-11 14:45:00
1 1959-05-22 06:00:00 Ts debe ser mayor o igual a Td Ts=1.1 - Td=9.6 2019-12-17 14:56:00
1 1959-05-25 11:00:00 Ts debe ser mayor o igual a Td Ts=7.1 - Td=69.0 2019-12-17 15:45:00
1 1960-07-05 12:00:00 Ts debe ser mayor o igual a Td Ts=-0.2 - Td=0.0 2019-12-23 15:45:00
1 1964-01-01 12:00:00 Ts debe ser mayor o igual a Td Ts=14.1 - Td=14.3 2020-11-17 14:55:00
1 1964-01-01 12:00:00 Ts debe ser mayor o igual a Td Ts=14.1 - Td=14.3 2020-11-17 14:55:00
1 1964-01-03 06:00:00 Ts debe ser mayor o igual a Td Ts=12.6 - Td=12.8 2020-11-17 14:57:00
1 1964-01-08 12:00:00 Ts debe ser mayor o igual a Td Ts=14.0 - Td=14.2 2020-11-17 15:02:00
1 1964-01-09 06:00:00 Ts debe ser mayor o igual a Td Ts=13.0 - Td=13.2 2020-11-17 15:02:00
1 1964-01-09 12:00:00 Ts debe ser mayor o igual a Td Ts=14.4 - Td=15.3 2020-11-17 15:02:00
1 1964-01-11 12:00:00 Ts debe ser mayor o igual a Td Ts=14.0 - Td=14.7 2020-11-17 15:02:00
1 1964-01-14 12:00:00 Ts debe ser mayor o igual a Td Ts=14.2 - Td=14.4 2020-11-17 15:02:00
1 1964-01-17 06:00:00 Ts debe ser mayor o igual a Td Ts=13.8 - Td=14.0 2020-11-17 15:02:00
1 1964-01-17 12:00:00 Ts debe ser mayor o igual a Td Ts=15.0 - Td=15.3 2020-11-17 15:02:00
1 1964-01-18 06:00:00 Ts debe ser mayor o igual a Td Ts=13.4 - Td=14.2 2020-11-17 15:02:00
1 1964-01-22 12:00:00 Ts debe ser mayor o igual a Td Ts=13.1 - Td=15.4 2020-11-17 15:02:00
1 1964-01-24 12:00:00 Ts debe ser mayor o igual a Td Ts=14.0 - Td=16.6 2020-11-17 15:02:00
1 1964-01-25 12:00:00 Ts debe ser mayor o igual a Td Ts=14.0 - Td=14.2 2020-11-17 15:02:00
1 1964-01-27 12:00:00 Ts debe ser mayor o igual a Td Ts=9.8 - Td=11.5 2020-11-17 15:02:00
1 1964-01-30 12:00:00 Ts debe ser mayor o igual a Td Ts=15.0 - Td=15.4 2020-11-17 15:02:00
1 1964-01-31 06:00:00 Ts debe ser mayor o igual a Td Ts=14.2 - Td=14.8 2020-11-17 15:02:00
1 1964-02-02 12:00:00 Ts debe ser mayor o igual a Td Ts=10.6 - Td=12.4 2020-11-17 15:02:00
1 1964-02-04 12:00:00 Ts debe ser mayor o igual a Td Ts=12.6 - Td=13.1 2020-11-17 15:02:00
1 1964-02-05 12:00:00 Ts debe ser mayor o igual a Td Ts=11.8 - Td=15.2 2020-11-17 15:07:00
1 1964-02-06 12:00:00 Ts debe ser mayor o igual a Td Ts=12.8 - Td=14.0 2020-11-17 15:07:00
1 1964-02-07 06:00:00 Ts debe ser mayor o igual a Td Ts=14.0 - Td=14.8 2020-11-17 15:07:00
1 1964-02-08 12:00:00 Ts debe ser mayor o igual a Td Ts=11.4 - Td=12.0 2020-11-17 15:07:00
1 1964-02-09 06:00:00 Ts debe ser mayor o igual a Td Ts=12.4 - Td=12.6 2020-11-17 15:07:00
1 1964-02-09 12:00:00 Ts debe ser mayor o igual a Td Ts=13.4 - Td=15.2 2020-11-17 15:07:00
1 1964-02-11 12:00:00 Ts debe ser mayor o igual a Td Ts=9.8 - Td=14.0 2020-11-17 15:07:00
1 1964-02-12 12:00:00 Ts debe ser mayor o igual a Td Ts=11.9 - Td=13.0 2020-11-17 15:07:00
1 1964-02-13 12:00:00 Ts debe ser mayor o igual a Td Ts=11.8 - Td=14.6 2020-11-17 15:07:00
1 1964-02-14 12:00:00 Ts debe ser mayor o igual a Td Ts=10.6 - Td=10.8 2020-11-17 15:07:00
1 1964-02-15 12:00:00 Ts debe ser mayor o igual a Td Ts=9.9 - Td=12.0 2020-11-17 15:07:00
1 1964-02-16 12:00:00 Ts debe ser mayor o igual a Td Ts=12.2 - Td=12.6 2020-11-17 15:07:00
1 1964-02-18 12:00:00 Ts debe ser mayor o igual a Td Ts=10.6 - Td=13.0 2020-11-17 15:07:00
1 1964-02-19 12:00:00 Ts debe ser mayor o igual a Td Ts=10.4 - Td=12.0 2020-11-17 15:07:00
1 1964-02-21 12:00:00 Ts debe ser mayor o igual a Td Ts=12.2 - Td=12.6 2020-11-17 15:07:00
1 1964-02-22 12:00:00 Ts debe ser mayor o igual a Td Ts=9.6 - Td=13.5 2020-11-17 15:07:00
1 1964-02-23 12:00:00 Ts debe ser mayor o igual a Td Ts=10.0 - Td=12.3 2020-11-17 15:07:00
1 1964-02-24 12:00:00 Ts debe ser mayor o igual a Td Ts=9.0 - Td=14.2 2020-11-17 15:07:00
1 1964-02-25 12:00:00 Ts debe ser mayor o igual a Td Ts=13.2 - Td=14.0 2020-11-17 15:07:00
1 1964-02-25 12:00:00 HR (Humedad Relativa) es igual a 100% y Ts <> Td 13.2 - 14.0 2020-10-29 20:24:00
1 1964-02-26 06:00:00 Ts debe ser mayor o igual a Td Ts=11.6 - Td=11.8 2020-11-17 15:07:00
1 1964-02-26 12:00:00 Ts debe ser mayor o igual a Td Ts=14.2 - Td=14.6 2020-11-17 15:07:00
1 1964-02-27 12:00:00 Ts debe ser mayor o igual a Td Ts=12.8 - Td=13.7 2020-11-17 15:07:00
1 1964-02-28 12:00:00 Ts debe ser mayor o igual a Td Ts=8.3 - Td=10.4 2020-11-17 15:07:00
1 1964-02-29 12:00:00 Ts debe ser mayor o igual a Td Ts=9.0 - Td=11.9 2020-11-17 15:07:00
1 1964-03-01 12:00:00 Ts debe ser mayor o igual a Td Ts=9.4 - Td=12.0 2020-11-17 15:07:00
1 1964-03-02 12:00:00 Ts debe ser mayor o igual a Td Ts=13.2 - Td=14.6 2020-11-17 15:07:00
1 1964-03-03 12:00:00 Ts debe ser mayor o igual a Td Ts=9.4 - Td=10.7 2020-11-17 15:07:00
1 1964-03-04 12:00:00 Ts debe ser mayor o igual a Td Ts=7.8 - Td=8.9 2020-11-17 15:07:00
1 1964-03-05 12:00:00 Ts debe ser mayor o igual a Td Ts=8.8 - Td=10.3 2020-11-17 15:23:00
1 1964-03-07 06:00:00 Ts debe ser mayor o igual a Td Ts=13.4 - Td=13.8 2020-11-17 15:23:00
1 1964-03-09 12:00:00 Ts debe ser mayor o igual a Td Ts=13.0 - Td=13.2 2020-11-17 15:23:00
1 1964-03-10 12:00:00 Ts debe ser mayor o igual a Td Ts=12.8 - Td=13.0 2020-11-17 15:23:00
1 1964-03-11 12:00:00 Ts debe ser mayor o igual a Td Ts=6.0 - Td=6.1 2020-11-17 15:23:00
1 1964-03-12 12:00:00 Ts debe ser mayor o igual a Td Ts=6.6 - Td=7.6 2020-11-17 15:23:00
1 1964-03-13 12:00:00 Ts debe ser mayor o igual a Td Ts=5.5 - Td=9.8 2020-11-17 15:23:00
1 1964-03-14 12:00:00 Ts debe ser mayor o igual a Td Ts=8.3 - Td=9.9 2020-11-17 15:23:00
1 1964-03-15 12:00:00 Ts debe ser mayor o igual a Td Ts=10.2 - Td=13.1 2020-11-17 15:23:00
1 1964-03-16 06:00:00 Ts debe ser mayor o igual a Td Ts=11.2 - Td=11.6 2020-11-17 15:23:00
1 1964-03-16 12:00:00 Ts debe ser mayor o igual a Td Ts=11.8 - Td=12.6 2020-11-17 15:23:00
1 1964-03-17 12:00:00 Ts debe ser mayor o igual a Td Ts=11.8 - Td=12.6 2020-11-17 15:23:00
1 1964-03-19 12:00:00 Ts debe ser mayor o igual a Td Ts=6.0 - Td=8.7 2020-11-17 15:23:00
1 1964-03-20 12:00:00 Ts debe ser mayor o igual a Td Ts=7.1 - Td=11.4 2020-11-17 15:23:00
1 1964-03-21 12:00:00 Ts debe ser mayor o igual a Td Ts=9.2 - Td=12.4 2020-11-17 15:23:00
1 1964-03-22 12:00:00 Ts debe ser mayor o igual a Td Ts=11.8 - Td=11.9 2020-11-17 15:23:00
1 1964-03-23 12:00:00 Ts debe ser mayor o igual a Td Ts=11.0 - Td=11.5 2020-11-17 15:23:00
1 1964-03-24 12:00:00 Ts debe ser mayor o igual a Td Ts=8.4 - Td=11.7 2020-11-17 15:23:00
1 1964-03-25 12:00:00 Ts debe ser mayor o igual a Td Ts=8.8 - Td=9.9 2020-11-17 15:23:00
1 1964-03-26 12:00:00 Ts debe ser mayor o igual a Td Ts=6.4 - Td=10.7 2020-11-17 15:23:00
1 1964-03-30 12:00:00 Ts debe ser mayor o igual a Td Ts=6.6 - Td=8.6 2020-11-17 15:23:00
1 1964-03-31 12:00:00 Ts debe ser mayor o igual a Td Ts=7.1 - Td=9.7 2020-11-17 15:23:00
1 1964-04-01 12:00:00 Ts debe ser mayor o igual a Td Ts=10.4 - Td=10.5 2020-11-17 15:23:00
1 1964-04-03 12:00:00 Ts debe ser mayor o igual a Td Ts=9.1 - Td=11.0 2020-11-17 15:23:00
1 1964-04-04 06:00:00 Ts debe ser mayor o igual a Td Ts=8.4 - Td=8.7 2020-11-17 15:23:00
1 1964-04-04 12:00:00 Ts debe ser mayor o igual a Td Ts=9.2 - Td=13.0 2020-11-17 15:23:00
1 1964-04-05 12:00:00 Ts debe ser mayor o igual a Td Ts=13.6 - Td=13.9 2020-11-17 15:27:00
1 1964-04-06 12:00:00 Ts debe ser mayor o igual a Td Ts=7.6 - Td=10.6 2020-11-17 15:27:00
1 1964-04-08 12:00:00 Ts debe ser mayor o igual a Td Ts=6.0 - Td=10.8 2020-11-17 15:27:00
1 1964-04-09 12:00:00 Ts debe ser mayor o igual a Td Ts=8.8 - Td=10.8 2020-11-17 15:27:00
1 1964-04-10 06:00:00 Ts debe ser mayor o igual a Td Ts=12.8 - Td=13.6 2020-11-17 15:27:00
1 1964-04-10 12:00:00 Ts debe ser mayor o igual a Td Ts=14.0 - Td=14.4 2020-11-17 15:27:00
1 1964-04-11 12:00:00 Ts debe ser mayor o igual a Td Ts=10.4 - Td=11.0 2020-11-17 15:27:00
1 1964-04-12 12:00:00 Ts debe ser mayor o igual a Td Ts=6.1 - Td=11.5 2020-11-17 15:27:00
1 1964-04-13 12:00:00 Ts debe ser mayor o igual a Td Ts=6.0 - Td=7.8 2020-11-17 15:27:00
1 1964-04-14 12:00:00 Ts debe ser mayor o igual a Td Ts=6.4 - Td=13.1 2020-11-17 15:27:00
1 1964-04-15 06:00:00 Ts debe ser mayor o igual a Td Ts=1.5 - Td=5.6 2020-11-17 15:27:00
1 1964-04-15 12:00:00 Ts debe ser mayor o igual a Td Ts=5.8 - Td=10.5 2020-11-17 15:27:00
1 1964-04-16 12:00:00 Ts debe ser mayor o igual a Td Ts=5.6 - Td=9.5 2020-11-17 15:27:00
1 1964-04-17 12:00:00 Ts debe ser mayor o igual a Td Ts=4.3 - Td=8.6 2020-11-17 15:27:00
1 1964-04-18 12:00:00 Ts debe ser mayor o igual a Td Ts=5.9 - Td=14.5 2020-11-17 15:27:00
1 1964-04-20 12:00:00 Ts debe ser mayor o igual a Td Ts=6.4 - Td=11.1 2020-11-17 15:27:00
1 1964-04-21 06:00:00 Ts debe ser mayor o igual a Td Ts=8.5 - Td=9.2 2020-11-17 15:27:00
1 1964-04-21 12:00:00 Ts debe ser mayor o igual a Td Ts=9.4 - Td=11.5 2020-11-17 15:27:00
1 1964-04-22 12:00:00 Ts debe ser mayor o igual a Td Ts=11.2 - Td=13.3 2020-11-17 15:27:00
1 1964-04-23 12:00:00 Ts debe ser mayor o igual a Td Ts=2.4 - Td=5.4 2020-11-17 15:27:00
1 1964-04-24 12:00:00 Ts debe ser mayor o igual a Td Ts=4.2 - Td=8.8 2020-11-17 15:27:00
1 1964-04-25 06:00:00 Ts debe ser mayor o igual a Td Ts=4.8 - Td=5.7 2020-11-17 15:27:00
1 1964-04-25 12:00:00 Ts debe ser mayor o igual a Td Ts=6.4 - Td=7.5 2020-11-17 15:27:00
1 1964-04-26 12:00:00 Ts debe ser mayor o igual a Td Ts=10.2 - Td=10.3 2020-11-17 15:27:00
1 1964-04-27 12:00:00 Ts debe ser mayor o igual a Td Ts=4.8 - Td=10.7 2020-11-17 15:27:00
1 1964-04-28 12:00:00 Ts debe ser mayor o igual a Td Ts=8.0 - Td=11.5 2020-11-17 15:27:00
1 1964-04-29 12:00:00 Ts debe ser mayor o igual a Td Ts=12.0 - Td=13.6 2020-11-17 15:27:00
1 1964-04-30 12:00:00 Ts debe ser mayor o igual a Td Ts=11.7 - Td=13.6 2020-11-17 15:27:00
1 1964-05-02 06:00:00 Ts debe ser mayor o igual a Td Ts=11.6 - Td=12.1 2020-11-17 15:27:00
1 1964-05-03 12:00:00 Ts debe ser mayor o igual a Td Ts=5.3 - Td=10.8 2020-11-17 15:27:00
1 1964-05-04 12:00:00 Ts debe ser mayor o igual a Td Ts=7.0 - Td=12.1 2020-11-17 15:27:00
1 1964-05-05 06:00:00 Ts debe ser mayor o igual a Td Ts=8.8 - Td=11.8 2020-11-17 15:38:00
1 1964-05-05 12:00:00 Ts debe ser mayor o igual a Td Ts=12.1 - Td=13.0 2020-11-17 15:38:00
1 1964-05-06 12:00:00 Ts debe ser mayor o igual a Td Ts=5.7 - Td=8.4 2020-11-17 15:38:00
1 1964-05-08 12:00:00 Ts debe ser mayor o igual a Td Ts=5.0 - Td=6.0 2020-11-17 15:38:00
1 1964-05-09 12:00:00 Ts debe ser mayor o igual a Td Ts=10.1 - Td=11.2 2020-11-17 15:38:00
1 1964-05-11 12:00:00 Ts debe ser mayor o igual a Td Ts=12.1 - Td=13.3 2020-11-17 15:38:00
1 1964-05-12 06:00:00 Ts debe ser mayor o igual a Td Ts=9.8 - Td=10.7 2020-11-17 15:38:00
1 1964-05-12 12:00:00 Ts debe ser mayor o igual a Td Ts=11.1 - Td=11.9 2020-11-17 15:38:00
1 1964-05-13 12:00:00 Ts debe ser mayor o igual a Td Ts=8.0 - Td=12.4 2020-11-17 15:38:00
1 1964-05-16 06:00:00 Ts debe ser mayor o igual a Td Ts=10.4 - Td=11.2 2020-11-17 15:38:00
1 1964-05-17 06:00:00 Ts debe ser mayor o igual a Td Ts=12.4 - Td=12.6 2020-11-17 15:38:00
1 1964-05-17 12:00:00 Ts debe ser mayor o igual a Td Ts=13.1 - Td=13.8 2020-11-17 15:38:00
1 1964-05-19 06:00:00 Ts debe ser mayor o igual a Td Ts=10.4 - Td=11.0 2020-11-17 15:38:00
1 1964-05-19 12:00:00 Ts debe ser mayor o igual a Td Ts=11.8 - Td=12.6 2020-11-17 15:38:00
1 1964-05-20 12:00:00 Ts debe ser mayor o igual a Td Ts=6.8 - Td=11.0 2020-11-17 15:38:00
1 1964-05-22 12:00:00 Ts debe ser mayor o igual a Td Ts=7.0 - Td=9.4 2020-11-17 15:38:00
1 1964-05-23 12:00:00 Ts debe ser mayor o igual a Td Ts=6.3 - Td=12.8 2020-11-17 15:38:00
1 1964-05-26 12:00:00 Ts debe ser mayor o igual a Td Ts=2.0 - Td=6.0 2020-11-17 15:38:00
1 1964-05-27 12:00:00 Ts debe ser mayor o igual a Td Ts=2.6 - Td=6.5 2020-11-17 15:38:00
1 1964-05-28 12:00:00 Ts debe ser mayor o igual a Td Ts=2.0 - Td=9.3 2020-11-17 15:38:00
1 1964-05-30 12:00:00 Ts debe ser mayor o igual a Td Ts=9.8 - Td=11.0 2020-11-17 15:38:00
1 1964-05-31 12:00:00 Ts debe ser mayor o igual a Td Ts=10.8 - Td=13.2 2020-11-17 15:38:00
1 1964-06-02 06:00:00 Ts debe ser mayor o igual a Td Ts=9.8 - Td=12.1 2020-11-17 15:38:00
1 1964-06-04 12:00:00 Ts debe ser mayor o igual a Td Ts=2.8 - Td=7.3 2020-11-17 15:38:00
1 1964-06-05 12:00:00 Ts debe ser mayor o igual a Td Ts=2.7 - Td=8.3 2020-11-17 15:46:00
1 1964-06-06 12:00:00 Ts debe ser mayor o igual a Td Ts=4.0 - Td=9.8 2020-11-17 15:46:00
1 1964-06-07 12:00:00 Ts debe ser mayor o igual a Td Ts=11.0 - Td=12.8 2020-11-17 15:46:00
1 1964-06-09 12:00:00 Ts debe ser mayor o igual a Td Ts=4.0 - Td=7.3 2020-11-17 15:47:00
1 1964-06-10 06:00:00 Ts debe ser mayor o igual a Td Ts=3.3 - Td=7.4 2020-11-17 15:47:00
1 1964-06-10 12:00:00 Ts debe ser mayor o igual a Td Ts=8.4 - Td=9.6 2020-11-17 15:47:00
1 1964-06-11 06:00:00 Ts debe ser mayor o igual a Td Ts=8.4 - Td=9.0 2020-11-17 15:47:00
1 1964-06-12 12:00:00 Ts debe ser mayor o igual a Td Ts=10.0 - Td=11.8 2020-11-17 15:47:00
1 1964-06-13 12:00:00 Ts debe ser mayor o igual a Td Ts=8.6 - Td=10.5 2020-11-17 15:47:00
1 1964-06-14 12:00:00 Ts debe ser mayor o igual a Td Ts=7.5 - Td=11.8 2020-11-17 15:47:00
1 1964-06-15 12:00:00 Ts debe ser mayor o igual a Td Ts=6.2 - Td=8.1 2020-11-17 15:47:00
1 1964-06-16 12:00:00 Ts debe ser mayor o igual a Td Ts=2.2 - Td=2.6 2020-11-17 15:47:00
1 1964-06-17 12:00:00 Ts debe ser mayor o igual a Td Ts=2.2 - Td=3.7 2020-11-17 15:47:00
1 1964-06-18 12:00:00 Ts debe ser mayor o igual a Td Ts=7.0 - Td=7.1 2020-11-17 15:47:00
1 1964-06-19 12:00:00 Ts debe ser mayor o igual a Td Ts=0.8 - Td=4.6 2020-11-17 15:47:00
1 1964-06-20 12:00:00 Ts debe ser mayor o igual a Td Ts=0.0 - Td=6.1 2020-11-17 15:47:00
1 1964-06-21 12:00:00 Ts debe ser mayor o igual a Td Ts=-0.4 - Td=3.0 2020-11-17 15:47:00
1 1964-06-22 06:00:00 Ts debe ser mayor o igual a Td Ts=6.2 - Td=7.4 2020-11-17 15:47:00
1 1964-06-22 12:00:00 Ts debe ser mayor o igual a Td Ts=8.2 - Td=8.8 2020-11-17 15:47:00
1 1964-06-23 06:00:00 Ts debe ser mayor o igual a Td Ts=4.2 - Td=5.6 2020-11-17 15:47:00
1 1964-06-23 12:00:00 Ts debe ser mayor o igual a Td Ts=5.8 - Td=9.3 2020-11-17 15:47:00
1 1964-06-24 12:00:00 Ts debe ser mayor o igual a Td Ts=8.0 - Td=10.0 2020-11-17 15:47:00
1 1964-06-25 12:00:00 Ts debe ser mayor o igual a Td Ts=5.3 - Td=7.3 2020-11-17 15:47:00
1 1964-06-26 12:00:00 Ts debe ser mayor o igual a Td Ts=3.0 - Td=9.2 2020-11-17 15:47:00
1 1964-06-27 12:00:00 Ts debe ser mayor o igual a Td Ts=3.0 - Td=6.4 2020-11-17 15:47:00
1 1964-06-28 12:00:00 Ts debe ser mayor o igual a Td Ts=1.3 - Td=7.3 2020-11-17 15:47:00
1 1964-06-29 12:00:00 Ts debe ser mayor o igual a Td Ts=3.2 - Td=6.5 2020-11-17 15:47:00
1 1964-06-30 12:00:00 Ts debe ser mayor o igual a Td Ts=2.6 - Td=7.4 2020-11-17 15:47:00
1 1964-07-01 12:00:00 Ts debe ser mayor o igual a Td Ts=0.4 - Td=4.6 2020-11-17 16:08:00
1 1964-07-02 12:00:00 Ts debe ser mayor o igual a Td Ts=0.1 - Td=4.7 2020-11-17 16:08:00
1 1964-07-03 12:00:00 Ts debe ser mayor o igual a Td Ts=4.2 - Td=7.7 2020-11-17 16:08:00
1 1964-07-04 06:00:00 Ts debe ser mayor o igual a Td Ts=9.8 - Td=10.0 2020-11-17 16:08:00
1 1964-07-04 12:00:00 Ts debe ser mayor o igual a Td Ts=10.4 - Td=10.7 2020-11-17 16:08:00
1 1964-07-05 12:00:00 Ts debe ser mayor o igual a Td Ts=7.2 - Td=9.4 2020-11-17 16:08:00
1 1964-07-08 12:00:00 Ts debe ser mayor o igual a Td Ts=3.9 - Td=7.8 2020-11-17 16:09:00
1 1964-07-09 12:00:00 Ts debe ser mayor o igual a Td Ts=6.6 - Td=10.0 2020-11-17 16:09:00
1 1964-07-10 12:00:00 Ts debe ser mayor o igual a Td Ts=7.9 - Td=9.2 2020-11-17 16:09:00
1 1964-07-11 12:00:00 Ts debe ser mayor o igual a Td Ts=5.2 - Td=7.7 2020-11-17 16:09:00
1 1964-07-12 06:00:00 Ts debe ser mayor o igual a Td Ts=5.3 - Td=5.6 2020-11-17 16:09:00
1 1964-07-12 12:00:00 Ts debe ser mayor o igual a Td Ts=6.0 - Td=7.4 2020-11-17 16:09:00
1 1964-07-13 12:00:00 Ts debe ser mayor o igual a Td Ts=5.3 - Td=9.7 2020-11-17 16:09:00
1 1964-07-15 12:00:00 Ts debe ser mayor o igual a Td Ts=3.4 - Td=8.5 2020-11-17 16:09:00
1 1964-07-16 12:00:00 Ts debe ser mayor o igual a Td Ts=10.1 - Td=11.0 2020-11-17 16:09:00
1 1964-07-17 12:00:00 Ts debe ser mayor o igual a Td Ts=6.3 - Td=8.2 2020-11-17 16:09:00
1 1964-07-18 06:00:00 Ts debe ser mayor o igual a Td Ts=5.8 - Td=6.0 2020-11-17 16:09:00
1 1964-07-18 12:00:00 Ts debe ser mayor o igual a Td Ts=6.6 - Td=7.0 2020-11-17 16:09:00
1 1964-07-19 12:00:00 Ts debe ser mayor o igual a Td Ts=6.2 - Td=8.5 2020-11-17 16:09:00
1 1964-07-22 12:00:00 Ts debe ser mayor o igual a Td Ts=6.2 - Td=6.7 2020-11-17 16:09:00
1 1964-07-23 12:00:00 Ts debe ser mayor o igual a Td Ts=0.9 - Td=9.4 2020-11-17 16:09:00
1 1964-07-24 06:00:00 Ts debe ser mayor o igual a Td Ts=6.7 - Td=6.8 2020-11-17 16:09:00
1 1964-07-24 12:00:00 Ts debe ser mayor o igual a Td Ts=7.2 - Td=10.1 2020-11-17 16:09:00
1 1964-07-25 12:00:00 Ts debe ser mayor o igual a Td Ts=4.0 - Td=7.2 2020-11-17 16:09:00
1 1964-07-26 12:00:00 Ts debe ser mayor o igual a Td Ts=6.8 - Td=9.0 2020-11-17 16:09:00
1 1964-07-27 12:00:00 Ts debe ser mayor o igual a Td Ts=7.0 - Td=8.7 2020-11-17 16:09:00
1 1964-07-31 12:00:00 Ts debe ser mayor o igual a Td Ts=-1.0 - Td=5.0 2020-11-17 16:09:00
1 1964-08-01 12:00:00 Ts debe ser mayor o igual a Td Ts=0.7 - Td=5.0 2020-11-17 16:14:00
1 1964-08-02 12:00:00 Ts debe ser mayor o igual a Td Ts=0.0 - Td=5.4 2020-11-17 16:14:00
1 1964-08-03 06:00:00 Ts debe ser mayor o igual a Td Ts=7.0 - Td=7.2 2020-11-17 16:14:00
1 1964-08-03 12:00:00 Ts debe ser mayor o igual a Td Ts=7.8 - Td=10.3 2020-11-17 16:14:00
1 1964-08-04 12:00:00 Ts debe ser mayor o igual a Td Ts=7.3 - Td=9.5 2020-11-17 16:14:00
1 1964-08-06 12:00:00 Ts debe ser mayor o igual a Td Ts=9.9 - Td=10.2 2020-11-17 16:14:00
1 1964-08-07 12:00:00 Ts debe ser mayor o igual a Td Ts=6.9 - Td=9.6 2020-11-17 16:14:00
1 1964-08-08 12:00:00 Ts debe ser mayor o igual a Td Ts=3.8 - Td=8.8 2020-11-17 16:14:00
1 1964-08-09 12:00:00 Ts debe ser mayor o igual a Td Ts=5.4 - Td=8.7 2020-11-17 16:14:00
1 1964-08-10 12:00:00 Ts debe ser mayor o igual a Td Ts=6.7 - Td=11.3 2020-11-17 16:14:00
1 1964-08-11 12:00:00 Ts debe ser mayor o igual a Td Ts=6.8 - Td=10.3 2020-11-17 16:14:00
1 1964-08-12 06:00:00 Ts debe ser mayor o igual a Td Ts=8.0 - Td=10.0 2020-11-17 16:14:00
1 1964-08-13 12:00:00 Ts debe ser mayor o igual a Td Ts=5.9 - Td=7.2 2020-11-17 16:14:00
1 1964-08-14 12:00:00 Ts debe ser mayor o igual a Td Ts=0.0 - Td=3.9 2020-11-17 16:14:00
1 1964-08-15 12:00:00 Ts debe ser mayor o igual a Td Ts=5.6 - Td=5.7 2020-11-17 16:14:00
1 1964-08-16 06:00:00 Ts debe ser mayor o igual a Td Ts=7.3 - Td=8.2 2020-11-17 16:14:00
1 1964-08-16 18:00:00 Ts debe ser mayor o igual a Td Ts=8.6 - Td=8.7 2020-11-17 16:14:00
1 1964-08-17 12:00:00 Ts debe ser mayor o igual a Td Ts=9.4 - Td=11.3 2020-11-17 16:14:00
1 1964-08-18 06:00:00 Ts debe ser mayor o igual a Td Ts=4.6 - Td=6.5 2020-11-17 16:14:00
1 1964-08-18 12:00:00 Ts debe ser mayor o igual a Td Ts=7.3 - Td=9.1 2020-11-17 16:14:00
1 1964-08-19 12:00:00 Ts debe ser mayor o igual a Td Ts=1.5 - Td=5.5 2020-11-17 16:14:00
1 1964-08-20 12:00:00 Ts debe ser mayor o igual a Td Ts=2.6 - Td=6.6 2020-11-17 16:14:00
1 1964-08-21 06:00:00 Ts debe ser mayor o igual a Td Ts=3.4 - Td=4.4 2020-11-17 16:14:00
1 1964-08-21 12:00:00 Ts debe ser mayor o igual a Td Ts=5.4 - Td=7.3 2020-11-17 16:14:00
1 1964-08-22 12:00:00 Ts debe ser mayor o igual a Td Ts=5.4 - Td=6.8 2020-11-17 16:14:00
1 1964-08-23 12:00:00 Ts debe ser mayor o igual a Td Ts=6.6 - Td=7.7 2020-11-17 16:14:00
1 1964-08-28 06:00:00 Ts debe ser mayor o igual a Td Ts=9.9 - Td=10.3 2020-11-17 16:14:00
1 1964-08-29 12:00:00 Ts debe ser mayor o igual a Td Ts=1.6 - Td=3.7 2020-11-17 16:14:00
1 1964-08-30 06:00:00 Ts debe ser mayor o igual a Td Ts=8.4 - Td=9.1 2020-11-17 16:14:00
1 1964-08-30 12:00:00 Ts debe ser mayor o igual a Td Ts=9.7 - Td=9.8 2020-11-17 16:14:00
1 1964-08-31 12:00:00 Ts debe ser mayor o igual a Td Ts=4.3 - Td=5.7 2020-11-17 16:14:00
1 1964-09-01 12:00:00 Ts debe ser mayor o igual a Td Ts=1.0 - Td=3.1 2020-11-17 16:18:00
1 1964-09-02 12:00:00 Ts debe ser mayor o igual a Td Ts=2.3 - Td=5.6 2020-11-17 16:18:00
1 1964-09-03 06:00:00 Ts debe ser mayor o igual a Td Ts=3.0 - Td=3.4 2020-11-17 16:18:00
1 1964-09-03 12:00:00 Ts debe ser mayor o igual a Td Ts=4.6 - Td=10.9 2020-11-17 16:18:00
1 1964-09-04 12:00:00 Ts debe ser mayor o igual a Td Ts=10.6 - Td=11.4 2020-11-17 16:18:00
1 1964-09-06 12:00:00 Ts debe ser mayor o igual a Td Ts=4.6 - Td=5.8 2020-11-17 16:18:00
1 1964-09-07 12:00:00 Ts debe ser mayor o igual a Td Ts=2.0 - Td=3.3 2020-11-17 16:18:00
1 1964-09-08 12:00:00 Ts debe ser mayor o igual a Td Ts=-0.8 - Td=4.1 2020-11-17 16:18:00
1 1964-09-08 12:00:00 HR (Humedad Relativa) es igual a 100% y Ts <> Td -0.8 - 4.1 2020-11-02 18:11:00
1 1964-09-09 12:00:00 Ts debe ser mayor o igual a Td Ts=2.6 - Td=6.0 2020-11-17 16:18:00
1 1964-09-10 12:00:00 Ts debe ser mayor o igual a Td Ts=4.2 - Td=7.4 2020-11-17 16:18:00
1 1964-09-11 12:00:00 Ts debe ser mayor o igual a Td Ts=5.4 - Td=9.3 2020-11-17 16:18:00
1 1964-09-12 06:00:00 Ts debe ser mayor o igual a Td Ts=10.1 - Td=10.4 2020-11-17 16:18:00
1 1964-09-12 12:00:00 Ts debe ser mayor o igual a Td Ts=10.8 - Td=11.9 2020-11-17 16:18:00
1 1964-09-13 12:00:00 Ts debe ser mayor o igual a Td Ts=5.8 - Td=8.0 2020-11-17 16:18:00
1 1964-09-14 06:00:00 Ts debe ser mayor o igual a Td Ts=5.0 - Td=5.9 2020-11-17 16:18:00
1 1964-09-14 12:00:00 Ts debe ser mayor o igual a Td Ts=6.7 - Td=10.4 2020-11-17 16:18:00
1 1964-09-15 18:00:00 Ts debe ser mayor o igual a Td Ts=10.8 - Td=11.3 2020-11-17 16:18:00
1 1964-09-17 12:00:00 Ts debe ser mayor o igual a Td Ts=7.4 - Td=9.2 2020-11-17 16:18:00
1 1964-09-18 12:00:00 Ts debe ser mayor o igual a Td Ts=4.1 - Td=8.8 2020-11-17 16:18:00
1 1964-09-19 12:00:00 Ts debe ser mayor o igual a Td Ts=5.8 - Td=7.9 2020-11-17 16:18:00
1 1964-09-20 12:00:00 Ts debe ser mayor o igual a Td Ts=5.4 - Td=7.8 2020-11-17 16:18:00
1 1964-09-21 12:00:00 Ts debe ser mayor o igual a Td Ts=4.2 - Td=10.9 2020-11-17 16:18:00
1 1964-09-22 12:00:00 Ts debe ser mayor o igual a Td Ts=9.0 - Td=9.8 2020-11-17 16:19:00
1 1964-09-23 12:00:00 Ts debe ser mayor o igual a Td Ts=9.0 - Td=11.9 2020-11-17 16:19:00
1 1964-09-24 12:00:00 Ts debe ser mayor o igual a Td Ts=10.5 - Td=12.4 2020-11-17 16:19:00
1 1964-09-27 12:00:00 Ts debe ser mayor o igual a Td Ts=3.2 - Td=6.1 2020-11-17 16:19:00
1 1964-09-28 12:00:00 Ts debe ser mayor o igual a Td Ts=2.2 - Td=5.0 2020-11-17 16:19:00
1 1964-09-29 12:00:00 Ts debe ser mayor o igual a Td Ts=7.8 - Td=8.2 2020-11-17 16:19:00
1 1964-09-30 12:00:00 Ts debe ser mayor o igual a Td Ts=2.6 - Td=7.6 2020-11-17 16:19:00
1 1964-10-01 12:00:00 Ts debe ser mayor o igual a Td Ts=4.8 - Td=7.3 2020-11-17 16:40:00
1 1964-10-02 12:00:00 Ts debe ser mayor o igual a Td Ts=7.0 - Td=9.9 2020-11-17 16:40:00
1 1964-10-03 06:00:00 Ts debe ser mayor o igual a Td Ts=5.4 - Td=8.0 2020-11-17 16:40:00
1 1964-10-03 12:00:00 Ts debe ser mayor o igual a Td Ts=8.6 - Td=12.9 2020-11-17 16:40:00
1 1964-10-04 12:00:00 Ts debe ser mayor o igual a Td Ts=8.0 - Td=12.7 2020-11-17 16:40:00
1 1964-10-07 12:00:00 Ts debe ser mayor o igual a Td Ts=9.5 - Td=12.2 2020-11-17 16:40:00
1 1964-10-12 12:00:00 Ts debe ser mayor o igual a Td Ts=10.0 - Td=12.1 2020-11-17 16:40:00
1 1964-10-13 12:00:00 Ts debe ser mayor o igual a Td Ts=8.1 - Td=10.0 2020-11-17 16:40:00
1 1964-10-15 12:00:00 Ts debe ser mayor o igual a Td Ts=8.2 - Td=8.9 2020-11-17 16:40:00
1 1964-10-16 12:00:00 Ts debe ser mayor o igual a Td Ts=7.7 - Td=10.0 2020-11-17 16:40:00
1 1964-10-17 12:00:00 Ts debe ser mayor o igual a Td Ts=8.8 - Td=12.1 2020-11-17 16:40:00
1 1964-10-19 12:00:00 Ts debe ser mayor o igual a Td Ts=7.8 - Td=8.2 2020-11-17 16:40:00
1 1964-10-20 12:00:00 Ts debe ser mayor o igual a Td Ts=8.9 - Td=11.6 2020-11-17 16:40:00
1 1964-10-23 12:00:00 Ts debe ser mayor o igual a Td Ts=11.1 - Td=11.2 2020-11-17 16:40:00
1 1964-10-27 12:00:00 Ts debe ser mayor o igual a Td Ts=8.6 - Td=9.8 2020-11-17 16:40:00
1 1964-10-28 06:00:00 Ts debe ser mayor o igual a Td Ts=11.4 - Td=11.9 2020-11-17 16:40:00
1 1964-11-01 12:00:00 Ts debe ser mayor o igual a Td Ts=11.4 - Td=13.2 2020-11-17 16:43:00
1 1964-11-04 12:00:00 Ts debe ser mayor o igual a Td Ts=8.5 - Td=9.0 2020-11-17 16:43:00
1 1964-11-07 12:00:00 Ts debe ser mayor o igual a Td Ts=10.0 - Td=10.8 2020-11-17 16:43:00
1 1964-11-09 12:00:00 Ts debe ser mayor o igual a Td Ts=10.6 - Td=12.8 2020-11-17 16:43:00
1 1964-11-11 12:00:00 Ts debe ser mayor o igual a Td Ts=10.0 - Td=11.2 2020-11-17 16:43:00
1 1964-11-14 12:00:00 Ts debe ser mayor o igual a Td Ts=11.0 - Td=12.0 2020-11-17 16:43:00
1 1964-11-17 06:00:00 Ts debe ser mayor o igual a Td Ts=9.4 - Td=10.2 2020-11-17 16:43:00
1 1964-11-21 12:00:00 Ts debe ser mayor o igual a Td Ts=11.4 - Td=12.1 2020-11-17 16:44:00
1 1964-11-22 06:00:00 Ts debe ser mayor o igual a Td Ts=11.8 - Td=12.0 2020-11-17 16:44:00
1 1964-11-25 06:00:00 Ts debe ser mayor o igual a Td Ts=10.3 - Td=10.8 2020-11-17 16:44:00
1 1964-11-26 12:00:00 Ts debe ser mayor o igual a Td Ts=14.2 - Td=14.8 2020-11-17 16:44:00
1 1964-11-29 06:00:00 Ts debe ser mayor o igual a Td Ts=14.0 - Td=15.6 2020-11-17 16:44:00
1 1964-11-30 12:00:00 Ts debe ser mayor o igual a Td Ts=14.3 - Td=15.1 2020-11-17 16:44:00
1 1964-12-02 06:00:00 Ts debe ser mayor o igual a Td Ts=13.2 - Td=13.4 2020-11-17 16:46:00
1 1964-12-02 12:00:00 Ts debe ser mayor o igual a Td Ts=15.0 - Td=15.4 2020-11-17 16:46:00
1 1964-12-03 12:00:00 Ts debe ser mayor o igual a Td Ts=12.1 - Td=14.9 2020-11-17 16:46:00
1 1964-12-03 12:00:00 HR (Humedad Relativa) es igual a 100% y Ts <> Td 12.1 - 14.9 2020-11-02 20:36:00
1 1964-12-04 12:00:00 Ts debe ser mayor o igual a Td Ts=13.7 - Td=13.8 2020-11-17 16:46:00
1 1964-12-05 06:00:00 Ts debe ser mayor o igual a Td Ts=14.2 - Td=14.6 2020-11-17 16:46:00
1 1964-12-07 06:00:00 Ts debe ser mayor o igual a Td Ts=14.1 - Td=14.9 2020-11-17 16:46:00
1 1964-12-07 12:00:00 Ts debe ser mayor o igual a Td Ts=15.4 - Td=15.7 2020-11-17 16:46:00
1 1964-12-09 06:00:00 Ts debe ser mayor o igual a Td Ts=14.2 - Td=14.9 2020-11-17 16:46:00
1 1964-12-13 12:00:00 Ts debe ser mayor o igual a Td Ts=14.0 - Td=15.3 2020-11-17 16:46:00
1 1964-12-16 12:00:00 Ts debe ser mayor o igual a Td Ts=13.6 - Td=14.1 2020-11-17 16:47:00
1 1964-12-17 12:00:00 Ts debe ser mayor o igual a Td Ts=13.2 - Td=14.7 2020-11-17 16:47:00
1 1964-12-18 12:00:00 Ts debe ser mayor o igual a Td Ts=14.6 - Td=14.9 2020-11-17 16:47:00
1 1964-12-19 12:00:00 Ts debe ser mayor o igual a Td Ts=13.8 - Td=13.9 2020-11-17 16:47:00
1 1964-12-22 06:00:00 Ts debe ser mayor o igual a Td Ts=12.5 - Td=14.0 2020-11-17 16:47:00
1 1964-12-23 06:00:00 Ts debe ser mayor o igual a Td Ts=14.4 - Td=14.8 2020-11-17 16:47:00
1 1964-12-23 12:00:00 Ts debe ser mayor o igual a Td Ts=15.3 - Td=15.8 2020-11-17 16:47:00
1 1964-12-24 06:00:00 Ts debe ser mayor o igual a Td Ts=14.4 - Td=15.0 2020-11-17 16:47:00
1 1964-12-25 06:00:00 Ts debe ser mayor o igual a Td Ts=14.5 - Td=15.8 2020-11-17 16:47:00
1 1964-12-27 12:00:00 Ts debe ser mayor o igual a Td Ts=15.2 - Td=15.7 2020-11-17 16:47:00
1 1965-01-04 12:00:00 Ts debe ser mayor o igual a Td Ts=15.4 - Td=16.2 2020-11-17 18:22:00
1 1965-01-13 12:00:00 Ts debe ser mayor o igual a Td Ts=15.4 - Td=16.4 2020-11-17 18:23:00
1 1965-01-15 12:00:00 Ts debe ser mayor o igual a Td Ts=13.0 - Td=14.8 2020-11-17 18:23:00
1 1965-01-19 12:00:00 Ts debe ser mayor o igual a Td Ts=16.8 - Td=17.7 2020-11-17 18:23:00
1 1965-01-24 12:00:00 Ts debe ser mayor o igual a Td Ts=15.4 - Td=15.5 2020-11-17 18:23:00
1 1965-01-25 12:00:00 Ts debe ser mayor o igual a Td Ts=14.4 - Td=16.7 2020-11-17 18:23:00
1 1965-01-26 12:00:00 Ts debe ser mayor o igual a Td Ts=13.4 - Td=14.0 2020-11-17 18:23:00
1 1965-01-27 12:00:00 Ts debe ser mayor o igual a Td Ts=14.6 - Td=18.4 2020-11-17 18:23:00
1 1965-01-28 12:00:00 Ts debe ser mayor o igual a Td Ts=13.4 - Td=14.9 2020-11-17 18:23:00
1 1965-01-29 06:00:00 Ts debe ser mayor o igual a Td Ts=13.8 - Td=14.3 2020-11-17 18:23:00
1 1965-01-29 12:00:00 Ts debe ser mayor o igual a Td Ts=15.5 - Td=15.8 2020-11-17 18:23:00
1 1965-01-30 12:00:00 Ts debe ser mayor o igual a Td Ts=12.8 - Td=13.5 2020-11-17 18:23:00
1 1965-01-31 12:00:00 Ts debe ser mayor o igual a Td Ts=11.6 - Td=14.2 2020-11-17 18:23:00
1 1965-02-01 06:00:00 Ts debe ser mayor o igual a Td Ts=15.5 - Td=16.0 2020-11-17 18:34:00
1 1965-02-04 12:00:00 Ts debe ser mayor o igual a Td Ts=12.0 - Td=12.1 2020-11-17 18:34:00
1 1965-02-05 12:00:00 Ts debe ser mayor o igual a Td Ts=11.3 - Td=11.4 2020-11-17 18:34:00
1 1965-02-06 12:00:00 Ts debe ser mayor o igual a Td Ts=13.1 - Td=16.1 2020-11-17 18:34:00
1 1965-02-07 06:00:00 Ts debe ser mayor o igual a Td Ts=14.3 - Td=14.7 2020-11-17 18:34:00
1 1965-02-08 12:00:00 Ts debe ser mayor o igual a Td Ts=11.0 - Td=12.4 2020-11-17 18:34:00
1 1965-02-09 12:00:00 Ts debe ser mayor o igual a Td Ts=12.0 - Td=13.8 2020-11-17 18:34:00
1 1965-02-10 12:00:00 Ts debe ser mayor o igual a Td Ts=11.5 - Td=15.3 2020-11-17 18:34:00
1 1965-02-11 12:00:00 Ts debe ser mayor o igual a Td Ts=12.8 - Td=14.8 2020-11-17 18:34:00
1 1965-02-13 12:00:00 Ts debe ser mayor o igual a Td Ts=10.7 - Td=11.8 2020-11-17 18:34:00
1 1965-02-16 12:00:00 Ts debe ser mayor o igual a Td Ts=10.4 - Td=12.4 2020-11-17 18:34:00
1 1965-02-17 12:00:00 Ts debe ser mayor o igual a Td Ts=17.1 - Td=17.7 2020-11-17 18:34:00
1 1965-02-18 12:00:00 Ts debe ser mayor o igual a Td Ts=18.2 - Td=18.3 2020-11-17 18:34:00
1 1965-02-19 12:00:00 Ts debe ser mayor o igual a Td Ts=13.6 - Td=15.4 2020-11-17 18:34:00
1 1965-02-22 12:00:00 Ts debe ser mayor o igual a Td Ts=12.5 - Td=14.0 2020-11-17 18:34:00
1 1965-02-24 12:00:00 Ts debe ser mayor o igual a Td Ts=15.4 - Td=17.4 2020-11-17 18:34:00
1 1965-02-25 12:00:00 Ts debe ser mayor o igual a Td Ts=16.0 - Td=17.0 2020-11-17 18:34:00
1 1965-02-28 12:00:00 Ts debe ser mayor o igual a Td Ts=15.0 - Td=20.4 2020-11-17 18:34:00
1 1965-03-01 12:00:00 Ts debe ser mayor o igual a Td Ts=13.0 - Td=16.9 2020-11-17 18:38:00
1 1965-03-02 12:00:00 Ts debe ser mayor o igual a Td Ts=16.6 - Td=16.8 2020-11-17 18:38:00
1 1965-03-03 12:00:00 Ts debe ser mayor o igual a Td Ts=14.4 - Td=15.1 2020-11-17 18:38:00
1 1965-03-04 12:00:00 Ts debe ser mayor o igual a Td Ts=13.5 - Td=14.6 2020-11-17 18:38:00
1 1965-03-05 12:00:00 Ts debe ser mayor o igual a Td Ts=11.3 - Td=14.2 2020-11-17 18:38:00
1 1965-03-07 12:00:00 Ts debe ser mayor o igual a Td Ts=13.6 - Td=14.2 2020-11-17 18:38:00
1 1965-03-08 12:00:00 Ts debe ser mayor o igual a Td Ts=11.8 - Td=13.4 2020-11-17 18:38:00
1 1965-03-09 12:00:00 Ts debe ser mayor o igual a Td Ts=12.3 - Td=13.7 2020-11-17 18:38:00
1 1965-03-10 12:00:00 Ts debe ser mayor o igual a Td Ts=11.0 - Td=16.0 2020-11-17 18:39:00
1 1965-03-11 12:00:00 Ts debe ser mayor o igual a Td Ts=14.6 - Td=17.4 2020-11-17 18:39:00
1 1965-03-13 12:00:00 Ts debe ser mayor o igual a Td Ts=10.4 - Td=13.4 2020-11-17 18:39:00
1 1965-03-14 12:00:00 Ts debe ser mayor o igual a Td Ts=10.0 - Td=12.1 2020-11-17 18:39:00
1 1965-03-15 12:00:00 Ts debe ser mayor o igual a Td Ts=10.2 - Td=11.4 2020-11-17 18:39:00
1 1965-03-16 12:00:00 Ts debe ser mayor o igual a Td Ts=10.4 - Td=12.8 2020-11-17 18:39:00
1 1965-03-18 12:00:00 Ts debe ser mayor o igual a Td Ts=11.1 - Td=14.3 2020-11-17 18:39:00
1 1965-03-21 12:00:00 Ts debe ser mayor o igual a Td Ts=9.1 - Td=13.6 2020-11-17 18:39:00
1 1965-03-22 12:00:00 Ts debe ser mayor o igual a Td Ts=12.4 - Td=12.8 2020-11-17 18:39:00
1 1965-03-23 12:00:00 Ts debe ser mayor o igual a Td Ts=13.4 - Td=15.6 2020-11-17 18:39:00
1 1965-03-24 12:00:00 Ts debe ser mayor o igual a Td Ts=10.5 - Td=12.8 2020-11-17 18:39:00
1 1965-03-25 12:00:00 Ts debe ser mayor o igual a Td Ts=9.0 - Td=11.6 2020-11-17 18:39:00
1 1965-03-26 12:00:00 Ts debe ser mayor o igual a Td Ts=10.0 - Td=11.0 2020-11-17 18:39:00
1 1965-03-27 12:00:00 Ts debe ser mayor o igual a Td Ts=9.7 - Td=13.1 2020-11-17 18:39:00
1 1965-03-28 12:00:00 Ts debe ser mayor o igual a Td Ts=11.2 - Td=12.6 2020-11-17 18:39:00
1 1965-03-30 12:00:00 Ts debe ser mayor o igual a Td Ts=7.4 - Td=7.7 2020-11-17 18:39:00
1 1965-03-31 12:00:00 Ts debe ser mayor o igual a Td Ts=7.0 - Td=11.1 2020-11-17 18:39:00
1 1965-04-01 12:00:00 Ts debe ser mayor o igual a Td Ts=9.0 - Td=11.9 2020-11-17 18:42:00
1 1965-04-02 12:00:00 Ts debe ser mayor o igual a Td Ts=9.8 - Td=11.1 2020-11-17 18:42:00
1 1965-04-03 12:00:00 Ts debe ser mayor o igual a Td Ts=10.2 - Td=10.9 2020-11-17 18:42:00
1 1965-04-04 12:00:00 Ts debe ser mayor o igual a Td Ts=7.6 - Td=11.3 2020-11-17 18:42:00
1 1965-04-05 06:00:00 Ts debe ser mayor o igual a Td Ts=12.3 - Td=12.7 2020-11-17 18:42:00
1 1965-04-06 12:00:00 Ts debe ser mayor o igual a Td Ts=13.8 - Td=14.6 2020-11-17 18:42:00
1 1965-04-07 12:00:00 Ts debe ser mayor o igual a Td Ts=12.0 - Td=12.2 2020-11-17 18:42:00
1 1965-04-08 12:00:00 Ts debe ser mayor o igual a Td Ts=8.1 - Td=12.5 2020-11-17 18:42:00
1 1965-04-09 12:00:00 Ts debe ser mayor o igual a Td Ts=10.8 - Td=11.3 2020-11-17 18:42:00
1 1965-04-12 12:00:00 Ts debe ser mayor o igual a Td Ts=8.0 - Td=8.7 2020-11-17 18:42:00
1 1965-04-13 12:00:00 Ts debe ser mayor o igual a Td Ts=12.5 - Td=14.4 2020-11-17 18:42:00
1 1965-04-15 12:00:00 Ts debe ser mayor o igual a Td Ts=4.8 - Td=7.6 2020-11-17 18:42:00
1 1965-04-17 12:00:00 Ts debe ser mayor o igual a Td Ts=4.7 - Td=8.2 2020-11-17 18:42:00
1 1965-04-18 12:00:00 Ts debe ser mayor o igual a Td Ts=6.4 - Td=10.3 2020-11-17 18:42:00
1 1965-04-19 12:00:00 Ts debe ser mayor o igual a Td Ts=6.2 - Td=10.5 2020-11-17 18:42:00
1 1965-04-20 12:00:00 Ts debe ser mayor o igual a Td Ts=6.6 - Td=11.6 2020-11-17 18:42:00
1 1965-04-21 12:00:00 Ts debe ser mayor o igual a Td Ts=9.2 - Td=10.8 2020-11-17 18:42:00
1 1965-04-22 12:00:00 Ts debe ser mayor o igual a Td Ts=8.6 - Td=12.4 2020-11-17 18:42:00
1 1965-04-24 12:00:00 Ts debe ser mayor o igual a Td Ts=5.0 - Td=8.9 2020-11-17 18:42:00
1 1965-04-25 12:00:00 Ts debe ser mayor o igual a Td Ts=5.4 - Td=7.6 2020-11-17 18:42:00
1 1965-04-26 12:00:00 Ts debe ser mayor o igual a Td Ts=4.9 - Td=6.2 2020-11-17 18:42:00
1 1965-04-27 12:00:00 Ts debe ser mayor o igual a Td Ts=5.6 - Td=9.8 2020-11-17 18:42:00
1 1965-04-28 12:00:00 Ts debe ser mayor o igual a Td Ts=5.2 - Td=9.6 2020-11-17 18:42:00
1 1965-04-29 12:00:00 Ts debe ser mayor o igual a Td Ts=7.1 - Td=7.9 2020-11-17 18:42:00
1 1965-05-02 12:00:00 Ts debe ser mayor o igual a Td Ts=5.2 - Td=9.6 2020-11-17 18:45:00
1 1965-05-02 12:00:00 HR (Humedad Relativa) es igual a 100% y Ts <> Td 5.2 - 9.6 2020-11-03 20:18:00
1 1965-05-03 12:00:00 Ts debe ser mayor o igual a Td Ts=5.6 - Td=10.8 2020-11-17 18:45:00
1 1965-05-04 06:00:00 Ts debe ser mayor o igual a Td Ts=7.4 - Td=8.4 2020-11-17 18:45:00
1 1965-05-04 06:00:00 HR (Humedad Relativa) es igual a 100% y Ts <> Td 7.4 - 8.4 2020-11-03 20:20:00
1 1965-05-04 12:00:00 Ts debe ser mayor o igual a Td Ts=8.6 - Td=11.8 2020-11-17 18:45:00
1 1965-05-05 12:00:00 Ts debe ser mayor o igual a Td Ts=5.4 - Td=9.9 2020-11-17 18:45:00
1 1965-05-06 12:00:00 Ts debe ser mayor o igual a Td Ts=5.8 - Td=8.5 2020-11-17 18:45:00
1 1965-05-07 12:00:00 Ts debe ser mayor o igual a Td Ts=4.2 - Td=8.4 2020-11-17 18:45:00
1 1965-05-08 12:00:00 Ts debe ser mayor o igual a Td Ts=3.6 - Td=7.0 2020-11-17 18:45:00
1 1965-05-09 06:00:00 Ts debe ser mayor o igual a Td Ts=5.9 - Td=6.0 2020-11-17 18:45:00
1 1965-05-09 12:00:00 Ts debe ser mayor o igual a Td Ts=6.4 - Td=12.6 2020-11-17 18:45:00
1 1965-05-10 12:00:00 Ts debe ser mayor o igual a Td Ts=8.5 - Td=10.0 2020-11-17 18:45:00
1 1965-05-11 06:00:00 Ts debe ser mayor o igual a Td Ts=7.4 - Td=10.2 2020-11-17 18:45:00
1 1965-05-11 12:00:00 Ts debe ser mayor o igual a Td Ts=10.6 - Td=10.9 2020-11-17 18:45:00
1 1965-05-14 06:00:00 Ts debe ser mayor o igual a Td Ts=6.6 - Td=8.0 2020-11-17 18:46:00
1 1965-05-14 12:00:00 Ts debe ser mayor o igual a Td Ts=8.8 - Td=9.0 2020-11-17 18:46:00
1 1965-05-15 12:00:00 Ts debe ser mayor o igual a Td Ts=5.8 - Td=7.1 2020-11-17 18:46:00
1 1965-05-16 12:00:00 Ts debe ser mayor o igual a Td Ts=2.9 - Td=4.1 2020-11-17 18:46:00
1 1965-05-17 12:00:00 Ts debe ser mayor o igual a Td Ts=0.4 - Td=5.7 2020-11-17 18:46:00
1 1965-05-18 12:00:00 Ts debe ser mayor o igual a Td Ts=3.8 - Td=6.0 2020-11-17 18:46:00
1 1965-05-19 12:00:00 Ts debe ser mayor o igual a Td Ts=1.1 - Td=4.8 2020-11-17 18:46:00
1 1965-05-22 18:00:00 Ts debe ser mayor o igual a Td Ts=11.2 - Td=12.9 2020-11-17 18:46:00
1 1965-05-23 12:00:00 Ts debe ser mayor o igual a Td Ts=12.7 - Td=14.8 2020-11-17 18:46:00
1 1965-05-24 06:00:00 Ts debe ser mayor o igual a Td Ts=11.8 - Td=12.3 2020-11-17 18:46:00
1 1965-05-24 18:00:00 Ts debe ser mayor o igual a Td Ts=13.9 - Td=15.2 2020-11-17 18:46:00
1 1965-05-26 12:00:00 Ts debe ser mayor o igual a Td Ts=9.4 - Td=10.3 2020-11-17 18:46:00
1 1965-05-27 12:00:00 Ts debe ser mayor o igual a Td Ts=8.4 - Td=13.0 2020-11-17 18:46:00
1 1965-06-01 12:00:00 Ts debe ser mayor o igual a Td Ts=8.6 - Td=8.8 2020-11-17 18:51:00
1 1965-06-02 12:00:00 Ts debe ser mayor o igual a Td Ts=5.8 - Td=8.9 2020-11-17 18:51:00
1 1965-06-03 12:00:00 Ts debe ser mayor o igual a Td Ts=6.0 - Td=9.1 2020-11-17 18:51:00
1 1965-06-04 12:00:00 Ts debe ser mayor o igual a Td Ts=8.7 - Td=11.3 2020-11-17 18:51:00
1 1965-06-05 12:00:00 Ts debe ser mayor o igual a Td Ts=12.8 - Td=14.5 2020-11-17 18:51:00
1 1965-06-06 06:00:00 Ts debe ser mayor o igual a Td Ts=13.2 - Td=13.4 2020-11-17 18:51:00
1 1965-06-09 12:00:00 Ts debe ser mayor o igual a Td Ts=11.5 - Td=11.6 2020-11-17 18:51:00
1 1965-06-10 12:00:00 Ts debe ser mayor o igual a Td Ts=8.0 - Td=11.5 2020-11-17 18:51:00
1 1965-06-11 12:00:00 Ts debe ser mayor o igual a Td Ts=8.9 - Td=13.2 2020-11-17 18:51:00
1 1965-06-12 12:00:00 Ts debe ser mayor o igual a Td Ts=11.6 - Td=11.9 2020-11-17 18:51:00
1 1965-06-14 12:00:00 Ts debe ser mayor o igual a Td Ts=5.4 - Td=7.5 2020-11-17 18:51:00
1 1965-06-15 12:00:00 Ts debe ser mayor o igual a Td Ts=11.8 - Td=12.1 2020-11-17 18:51:00
1 1965-06-16 06:00:00 Ts debe ser mayor o igual a Td Ts=12.8 - Td=13.1 2020-11-17 18:51:00
1 1965-06-16 12:00:00 Ts debe ser mayor o igual a Td Ts=13.3 - Td=14.3 2020-11-17 18:51:00
1 1965-06-19 12:00:00 Ts debe ser mayor o igual a Td Ts=10.6 - Td=13.5 2020-11-17 18:51:00
1 1965-06-20 12:00:00 Ts debe ser mayor o igual a Td Ts=13.2 - Td=13.3 2020-11-17 18:51:00
1 1965-06-21 12:00:00 Ts debe ser mayor o igual a Td Ts=10.6 - Td=13.2 2020-11-17 18:51:00
1 1965-06-22 06:00:00 Ts debe ser mayor o igual a Td Ts=12.3 - Td=13.4 2020-11-17 18:51:00
1 1965-06-24 12:00:00 Ts debe ser mayor o igual a Td Ts=12.9 - Td=13.2 2020-11-17 18:51:00
1 1965-06-25 12:00:00 Ts debe ser mayor o igual a Td Ts=11.1 - Td=12.7 2020-11-17 18:51:00
1 1965-06-27 12:00:00 Ts debe ser mayor o igual a Td Ts=7.3 - Td=9.0 2020-11-17 18:51:00
1 1965-06-28 12:00:00 Ts debe ser mayor o igual a Td Ts=6.0 - Td=9.7 2020-11-17 18:51:00
1 1965-06-29 06:00:00 Ts debe ser mayor o igual a Td Ts=5.2 - Td=5.4 2020-11-17 18:51:00
1 1965-06-29 12:00:00 Ts debe ser mayor o igual a Td Ts=5.8 - Td=9.4 2020-11-17 18:51:00
1 1965-07-01 12:00:00 Ts debe ser mayor o igual a Td Ts=1.8 - Td=7.6 2020-11-17 18:59:00
1 1965-07-04 12:00:00 Ts debe ser mayor o igual a Td Ts=4.0 - Td=5.6 2020-11-17 18:59:00
1 1965-07-05 12:00:00 Ts debe ser mayor o igual a Td Ts=2.5 - Td=6.0 2020-11-17 18:59:00
1 1965-07-06 12:00:00 Ts debe ser mayor o igual a Td Ts=10.2 - Td=10.9 2020-11-17 18:59:00
1 1965-07-07 12:00:00 Ts debe ser mayor o igual a Td Ts=5.4 - Td=9.3 2020-11-17 18:59:00
1 1965-07-09 12:00:00 Ts debe ser mayor o igual a Td Ts=2.4 - Td=7.0 2020-11-17 19:00:00
1 1965-07-10 12:00:00 Ts debe ser mayor o igual a Td Ts=2.1 - Td=4.6 2020-11-17 19:00:00
1 1965-07-11 12:00:00 Ts debe ser mayor o igual a Td Ts=5.2 - Td=9.2 2020-11-17 19:00:00
1 1965-07-12 06:00:00 Ts debe ser mayor o igual a Td Ts=7.4 - Td=7.9 2020-11-17 19:00:00
1 1965-07-13 06:00:00 Ts debe ser mayor o igual a Td Ts=5.3 - Td=5.4 2020-11-17 19:00:00
1 1965-07-13 12:00:00 Ts debe ser mayor o igual a Td Ts=6.8 - Td=7.6 2020-11-17 19:00:00
1 1965-07-14 12:00:00 Ts debe ser mayor o igual a Td Ts=1.2 - Td=5.2 2020-11-17 19:00:00
1 1965-07-15 12:00:00 Ts debe ser mayor o igual a Td Ts=3.0 - Td=4.0 2020-11-17 19:00:00
1 1965-07-16 12:00:00 Ts debe ser mayor o igual a Td Ts=2.2 - Td=5.8 2020-11-17 19:00:00
1 1965-07-18 12:00:00 Ts debe ser mayor o igual a Td Ts=10.1 - Td=10.9 2020-11-17 19:00:00
1 1965-07-19 06:00:00 Ts debe ser mayor o igual a Td Ts=11.3 - Td=11.5 2020-11-17 19:00:00
1 1965-07-20 12:00:00 Ts debe ser mayor o igual a Td Ts=9.6 - Td=10.8 2020-11-17 19:00:00
1 1965-07-24 06:00:00 Ts debe ser mayor o igual a Td Ts=8.2 - Td=9.1 2020-11-17 19:00:00
1 1965-07-24 12:00:00 Ts debe ser mayor o igual a Td Ts=9.7 - Td=10.6 2020-11-17 19:00:00
1 1965-07-26 12:00:00 Ts debe ser mayor o igual a Td Ts=8.2 - Td=9.3 2020-11-17 19:00:00
1 1965-07-27 12:00:00 Ts debe ser mayor o igual a Td Ts=11.0 - Td=11.5 2020-11-17 19:00:00
1 1965-07-28 06:00:00 Ts debe ser mayor o igual a Td Ts=10.2 - Td=11.0 2020-11-17 19:00:00
1 1965-07-29 12:00:00 Ts debe ser mayor o igual a Td Ts=12.0 - Td=12.4 2020-11-17 19:00:00
1 1965-07-31 12:00:00 Ts debe ser mayor o igual a Td Ts=3.0 - Td=7.1 2020-11-17 19:00:00
1 1965-08-02 12:00:00 Ts debe ser mayor o igual a Td Ts=3.4 - Td=7.9 2020-11-17 19:12:00
1 1965-08-03 12:00:00 Ts debe ser mayor o igual a Td Ts=7.4 - Td=8.4 2020-11-17 19:12:00
1 1965-08-04 12:00:00 Ts debe ser mayor o igual a Td Ts=3.8 - Td=6.5 2020-11-17 19:12:00
1 1965-08-05 12:00:00 Ts debe ser mayor o igual a Td Ts=3.0 - Td=7.9 2020-11-17 19:12:00
1 1965-08-06 12:00:00 Ts debe ser mayor o igual a Td Ts=10.8 - Td=10.9 2020-11-17 19:12:00
1 1965-08-10 12:00:00 Ts debe ser mayor o igual a Td Ts=10.4 - Td=11.2 2020-11-17 19:13:00
1 1965-08-17 12:00:00 Ts debe ser mayor o igual a Td Ts=5.1 - Td=7.0 2020-11-17 19:13:00
1 1965-08-18 12:00:00 Ts debe ser mayor o igual a Td Ts=2.4 - Td=3.1 2020-11-17 19:13:00
1 1965-08-19 12:00:00 Ts debe ser mayor o igual a Td Ts=1.6 - Td=4.8 2020-11-17 19:13:00
1 1965-08-20 12:00:00 Ts debe ser mayor o igual a Td Ts=1.8 - Td=6.6 2020-11-17 19:13:00
1 1965-08-21 12:00:00 Ts debe ser mayor o igual a Td Ts=4.7 - Td=10.4 2020-11-17 19:13:00
1 1965-08-22 12:00:00 Ts debe ser mayor o igual a Td Ts=4.6 - Td=6.8 2020-11-17 19:13:00
1 1965-08-23 12:00:00 Ts debe ser mayor o igual a Td Ts=2.2 - Td=5.4 2020-11-17 19:13:00
1 1965-08-24 12:00:00 Ts debe ser mayor o igual a Td Ts=0.0 - Td=5.7 2020-11-17 19:13:00
1 1965-08-25 12:00:00 Ts debe ser mayor o igual a Td Ts=1.8 - Td=5.6 2020-11-17 19:13:00
1 1965-08-26 12:00:00 Ts debe ser mayor o igual a Td Ts=2.2 - Td=7.0 2020-11-17 19:13:00
1 1965-08-27 12:00:00 Ts debe ser mayor o igual a Td Ts=2.8 - Td=4.3 2020-11-17 19:13:00
1 1965-08-28 12:00:00 Ts debe ser mayor o igual a Td Ts=2.8 - Td=6.9 2020-11-17 19:13:00
1 1965-08-29 12:00:00 Ts debe ser mayor o igual a Td Ts=2.1 - Td=8.0 2020-11-17 19:13:00
1 1965-08-30 12:00:00 Ts debe ser mayor o igual a Td Ts=1.3 - Td=8.6 2020-11-17 19:13:00
1 1965-08-31 12:00:00 Ts debe ser mayor o igual a Td Ts=3.8 - Td=6.8 2020-11-17 19:13:00
1 1965-09-01 06:00:00 Ts debe ser mayor o igual a Td Ts=6.4 - Td=7.0 2020-11-17 19:24:00
1 1965-09-02 12:00:00 Ts debe ser mayor o igual a Td Ts=4.6 - Td=7.2 2020-11-17 19:24:00
1 1965-09-03 12:00:00 Ts debe ser mayor o igual a Td Ts=5.4 - Td=5.8 2020-11-17 19:24:00
1 1965-09-04 12:00:00 Ts debe ser mayor o igual a Td Ts=2.2 - Td=7.0 2020-11-17 19:24:00
1 1965-09-05 12:00:00 Ts debe ser mayor o igual a Td Ts=1.1 - Td=5.0 2020-11-17 19:24:00
1 1965-09-06 12:00:00 Ts debe ser mayor o igual a Td Ts=0.4 - Td=5.8 2020-11-17 19:24:00
1 1965-09-08 12:00:00 Ts debe ser mayor o igual a Td Ts=6.0 - Td=7.7 2020-11-17 19:24:00
1 1965-09-09 12:00:00 Ts debe ser mayor o igual a Td Ts=4.8 - Td=6.2 2020-11-17 19:24:00
1 1965-09-10 12:00:00 Ts debe ser mayor o igual a Td Ts=2.0 - Td=5.7 2020-11-17 19:24:00
1 1965-09-11 12:00:00 Ts debe ser mayor o igual a Td Ts=3.6 - Td=6.5 2020-11-17 19:24:00
1 1965-09-12 06:00:00 Ts debe ser mayor o igual a Td Ts=6.0 - Td=7.8 2020-11-17 19:24:00
1 1965-09-12 12:00:00 Ts debe ser mayor o igual a Td Ts=8.2 - Td=10.8 2020-11-17 19:24:00
1 1965-09-13 12:00:00 Ts debe ser mayor o igual a Td Ts=1.1 - Td=5.6 2020-11-17 19:24:00
1 1965-09-14 12:00:00 Ts debe ser mayor o igual a Td Ts=5.3 - Td=5.5 2020-11-17 19:24:00
1 1965-09-15 12:00:00 Ts debe ser mayor o igual a Td Ts=3.0 - Td=7.0 2020-11-17 19:24:00
1 1965-09-16 12:00:00 Ts debe ser mayor o igual a Td Ts=8.4 - Td=9.3 2020-11-17 19:24:00
1 1965-09-17 12:00:00 Ts debe ser mayor o igual a Td Ts=9.0 - Td=9.2 2020-11-17 19:24:00
1 1965-09-18 12:00:00 Ts debe ser mayor o igual a Td Ts=5.1 - Td=10.9 2020-11-17 19:24:00
1 1965-09-19 12:00:00 Ts debe ser mayor o igual a Td Ts=7.3 - Td=10.9 2020-11-17 19:24:00
1 1965-09-20 12:00:00 Ts debe ser mayor o igual a Td Ts=8.9 - Td=11.2 2020-11-17 19:24:00
1 1965-09-21 12:00:00 Ts debe ser mayor o igual a Td Ts=9.6 - Td=11.2 2020-11-17 19:24:00
1 1965-09-22 12:00:00 Ts debe ser mayor o igual a Td Ts=7.2 - Td=9.7 2020-11-17 19:24:00
1 1965-09-23 12:00:00 Ts debe ser mayor o igual a Td Ts=10.0 - Td=11.0 2020-11-17 19:25:00
1 1965-09-25 12:00:00 Ts debe ser mayor o igual a Td Ts=4.1 - Td=8.4 2020-11-17 19:25:00
1 1965-09-26 12:00:00 Ts debe ser mayor o igual a Td Ts=4.8 - Td=9.2 2020-11-17 19:25:00
1 1965-09-27 12:00:00 Ts debe ser mayor o igual a Td Ts=5.6 - Td=10.8 2020-11-17 19:25:00
1 1965-09-29 12:00:00 Ts debe ser mayor o igual a Td Ts=6.6 - Td=7.1 2020-11-17 19:25:00
1 1965-09-30 12:00:00 Ts debe ser mayor o igual a Td Ts=5.6 - Td=7.0 2020-11-17 19:25:00
1 1965-10-01 12:00:00 Ts debe ser mayor o igual a Td Ts=7.0 - Td=8.8 2020-11-17 19:30:00
1 1965-10-02 06:00:00 Ts debe ser mayor o igual a Td Ts=6.0 - Td=7.2 2020-11-17 19:30:00
1 1965-10-02 12:00:00 Ts debe ser mayor o igual a Td Ts=7.7 - Td=8.9 2020-11-17 19:30:00
1 1965-10-03 12:00:00 Ts debe ser mayor o igual a Td Ts=5.6 - Td=10.2 2020-11-17 19:30:00
1 1965-10-04 12:00:00 Ts debe ser mayor o igual a Td Ts=11.2 - Td=11.7 2020-11-17 19:30:00
1 1965-10-05 12:00:00 Ts debe ser mayor o igual a Td Ts=7.2 - Td=8.8 2020-11-17 19:30:00
1 1965-10-06 12:00:00 Ts debe ser mayor o igual a Td Ts=6.0 - Td=9.4 2020-11-17 19:30:00
1 1965-10-07 06:00:00 Ts debe ser mayor o igual a Td Ts=9.4 - Td=10.3 2020-11-17 19:30:00
1 1965-10-07 12:00:00 Ts debe ser mayor o igual a Td Ts=11.2 - Td=11.8 2020-11-17 19:30:00
1 1965-10-09 12:00:00 Ts debe ser mayor o igual a Td Ts=4.0 - Td=5.9 2020-11-17 19:30:00
1 1965-10-10 12:00:00 Ts debe ser mayor o igual a Td Ts=6.4 - Td=7.5 2020-11-17 19:30:00
1 1965-10-11 06:00:00 Ts debe ser mayor o igual a Td Ts=7.8 - Td=10.0 2020-11-17 19:30:00
1 1965-10-11 12:00:00 Ts debe ser mayor o igual a Td Ts=10.4 - Td=11.8 2020-11-17 19:30:00
1 1965-10-13 12:00:00 Ts debe ser mayor o igual a Td Ts=6.3 - Td=10.7 2020-11-17 19:30:00
1 1965-10-14 06:00:00 Ts debe ser mayor o igual a Td Ts=7.3 - Td=9.6 2020-11-17 19:30:00
1 1965-10-14 12:00:00 Ts debe ser mayor o igual a Td Ts=9.7 - Td=13.1 2020-11-17 19:30:00
1 1965-10-15 12:00:00 Ts debe ser mayor o igual a Td Ts=8.4 - Td=12.4 2020-11-17 19:30:00
1 1965-10-19 12:00:00 Ts debe ser mayor o igual a Td Ts=5.0 - Td=5.1 2020-11-17 19:30:00
1 1965-10-20 12:00:00 Ts debe ser mayor o igual a Td Ts=6.4 - Td=8.4 2020-11-17 19:30:00
1 1965-10-21 06:00:00 Ts debe ser mayor o igual a Td Ts=6.0 - Td=6.8 2020-11-17 19:30:00
1 1965-10-21 12:00:00 Ts debe ser mayor o igual a Td Ts=7.2 - Td=10.6 2020-11-17 19:30:00
1 1965-10-25 12:00:00 Ts debe ser mayor o igual a Td Ts=10.0 - Td=12.0 2020-11-17 19:31:00
1 1965-10-28 12:00:00 Ts debe ser mayor o igual a Td Ts=7.6 - Td=9.4 2020-11-17 19:31:00
1 1965-10-30 06:00:00 Ts debe ser mayor o igual a Td Ts=11.0 - Td=11.7 2020-11-17 19:31:00
1 1965-11-04 12:00:00 Ts debe ser mayor o igual a Td Ts=11.0 - Td=11.6 2020-11-17 19:36:00
1 1965-11-05 12:00:00 Ts debe ser mayor o igual a Td Ts=9.7 - Td=12.2 2020-11-17 19:36:00
1 1965-11-06 12:00:00 Ts debe ser mayor o igual a Td Ts=9.4 - Td=12.6 2020-11-17 19:36:00
1 1965-11-07 12:00:00 Ts debe ser mayor o igual a Td Ts=11.1 - Td=11.9 2020-11-17 19:36:00
1 1965-11-08 12:00:00 Ts debe ser mayor o igual a Td Ts=10.8 - Td=12.3 2020-11-17 19:36:00
1 1965-11-09 12:00:00 Ts debe ser mayor o igual a Td Ts=10.8 - Td=12.1 2020-11-17 19:36:00
1 1965-11-11 12:00:00 Ts debe ser mayor o igual a Td Ts=10.2 - Td=11.1 2020-11-17 19:36:00
1 1965-11-12 12:00:00 Ts debe ser mayor o igual a Td Ts=10.3 - Td=11.6 2020-11-17 19:36:00
1 1965-11-14 12:00:00 Ts debe ser mayor o igual a Td Ts=12.5 - Td=12.7 2020-11-17 19:36:00
1 1965-11-15 12:00:00 Ts debe ser mayor o igual a Td Ts=12.0 - Td=13.6 2020-11-17 19:36:00
1 1965-11-16 06:00:00 Ts debe ser mayor o igual a Td Ts=12.5 - Td=13.0 2020-11-17 19:36:00
1 1965-11-18 12:00:00 Ts debe ser mayor o igual a Td Ts=12.6 - Td=13.2 2020-11-17 19:36:00
1 1965-11-19 12:00:00 Ts debe ser mayor o igual a Td Ts=11.7 - Td=12.2 2020-11-17 19:36:00
1 1965-11-21 12:00:00 Ts debe ser mayor o igual a Td Ts=12.5 - Td=12.9 2020-11-17 19:36:00
1 1965-11-23 06:00:00 Ts debe ser mayor o igual a Td Ts=9.0 - Td=9.2 2020-11-17 19:36:00
1 1965-11-27 12:00:00 Ts debe ser mayor o igual a Td Ts=13.8 - Td=14.0 2020-11-17 19:36:00
1 1965-11-28 12:00:00 Ts debe ser mayor o igual a Td Ts=14.2 - Td=14.4 2020-11-17 19:36:00
1 1965-12-01 06:00:00 Ts debe ser mayor o igual a Td Ts=9.4 - Td=10.4 2020-11-17 19:44:00
1 1965-12-02 12:00:00 Ts debe ser mayor o igual a Td Ts=13.4 - Td=15.0 2020-11-17 19:44:00
1 1965-12-06 06:00:00 Ts debe ser mayor o igual a Td Ts=13.5 - Td=14.0 2020-11-17 19:44:00
1 1965-12-08 12:00:00 Ts debe ser mayor o igual a Td Ts=13.6 - Td=13.7 2020-11-17 19:44:00
1 1965-12-15 12:00:00 Ts debe ser mayor o igual a Td Ts=12.6 - Td=12.8 2020-11-17 19:44:00
1 1965-12-28 12:00:00 Ts debe ser mayor o igual a Td Ts=13.2 - Td=15.1 2020-11-17 19:44:00
1 1965-12-30 12:00:00 Ts debe ser mayor o igual a Td Ts=13.3 - Td=14.3 2020-11-17 19:44:00
1 1965-12-31 12:00:00 Ts debe ser mayor o igual a Td Ts=13.8 - Td=14.0 2020-11-17 19:44:00
1 1966-01-01 06:00:00 Ts debe ser mayor o igual a Td Ts=11.4 - Td=13.3 2020-11-17 19:54:00
1 1966-01-01 12:00:00 Ts debe ser mayor o igual a Td Ts=15.2 - Td=15.9 2020-11-17 19:54:00
1 1966-01-01 06:00:00 Ts debe ser mayor o igual a Td Ts=11.4 - Td=13.3 2020-11-17 19:54:00
1 1966-01-01 12:00:00 Ts debe ser mayor o igual a Td Ts=15.2 - Td=15.9 2020-11-17 19:54:00
1 1966-01-03 12:00:00 Ts debe ser mayor o igual a Td Ts=13.8 - Td=14.3 2020-11-17 19:54:00
1 1966-01-09 12:00:00 Ts debe ser mayor o igual a Td Ts=14.3 - Td=14.4 2020-11-17 19:55:00
1 1966-01-10 12:00:00 Ts debe ser mayor o igual a Td Ts=12.4 - Td=14.0 2020-11-17 19:55:00
1 1966-01-12 12:00:00 Ts debe ser mayor o igual a Td Ts=14.3 - Td=14.8 2020-11-17 19:55:00
1 1966-01-13 12:00:00 Ts debe ser mayor o igual a Td Ts=12.9 - Td=13.6 2020-11-17 19:55:00
1 1966-01-15 12:00:00 Ts debe ser mayor o igual a Td Ts=14.7 - Td=14.8 2020-11-17 19:55:00
1 1966-01-24 12:00:00 Ts debe ser mayor o igual a Td Ts=14.6 - Td=15.4 2020-11-17 19:55:00
1 1966-01-26 06:00:00 Ts debe ser mayor o igual a Td Ts=13.1 - Td=13.5 2020-11-17 19:55:00
1 1966-01-26 12:00:00 Ts debe ser mayor o igual a Td Ts=14.0 - Td=14.3 2020-11-17 19:55:00
1 1966-01-31 12:00:00 Ts debe ser mayor o igual a Td Ts=12.2 - Td=12.3 2020-11-17 19:55:00
1 1966-02-02 12:00:00 Ts debe ser mayor o igual a Td Ts=8.4 - Td=9.4 2020-11-17 20:04:00
1 1966-02-04 12:00:00 Ts debe ser mayor o igual a Td Ts=15.7 - Td=15.8 2020-11-17 20:04:00
1 1966-02-06 12:00:00 Ts debe ser mayor o igual a Td Ts=14.6 - Td=15.0 2020-11-17 20:04:00
1 1966-02-09 12:00:00 Ts debe ser mayor o igual a Td Ts=9.4 - Td=10.4 2020-11-17 20:04:00
1 1966-02-10 12:00:00 Ts debe ser mayor o igual a Td Ts=10.2 - Td=10.8 2020-11-17 20:04:00
1 1966-02-11 12:00:00 Ts debe ser mayor o igual a Td Ts=8.6 - Td=10.7 2020-11-17 20:04:00
1 1966-02-12 12:00:00 Ts debe ser mayor o igual a Td Ts=10.6 - Td=11.8 2020-11-17 20:04:00
1 1966-02-16 12:00:00 Ts debe ser mayor o igual a Td Ts=10.2 - Td=12.9 2020-11-17 20:04:00
1 1966-02-19 12:00:00 Ts debe ser mayor o igual a Td Ts=11.8 - Td=12.8 2020-11-17 20:04:00
1 1966-02-21 12:00:00 Ts debe ser mayor o igual a Td Ts=9.2 - Td=10.0 2020-11-17 20:04:00
1 1966-02-22 12:00:00 Ts debe ser mayor o igual a Td Ts=10.3 - Td=11.3 2020-11-17 20:04:00
1 1966-02-24 12:00:00 Ts debe ser mayor o igual a Td Ts=8.4 - Td=8.8 2020-11-17 20:04:00
1 1966-02-25 12:00:00 Ts debe ser mayor o igual a Td Ts=8.6 - Td=10.2 2020-11-17 20:04:00
1 1966-02-26 12:00:00 Ts debe ser mayor o igual a Td Ts=8.4 - Td=11.4 2020-11-17 20:04:00
1 1966-10-01 12:00:00 Ts debe ser mayor o igual a Td Ts=4.8 - Td=8.8 2020-11-18 12:13:00
1 1966-10-02 06:00:00 Ts debe ser mayor o igual a Td Ts=6.9 - Td=7.6 2020-11-18 12:13:00
1 1966-10-03 12:00:00 Ts debe ser mayor o igual a Td Ts=5.6 - Td=6.7 2020-11-18 12:13:00
1 1966-10-04 12:00:00 Ts debe ser mayor o igual a Td Ts=2.6 - Td=4.6 2020-11-18 12:13:00
1 1966-10-05 12:00:00 Ts debe ser mayor o igual a Td Ts=3.8 - Td=8.8 2020-11-18 12:13:00
1 1966-10-06 12:00:00 Ts debe ser mayor o igual a Td Ts=5.8 - Td=8.4 2020-11-18 12:13:00
1 1966-10-08 06:00:00 Ts debe ser mayor o igual a Td Ts=4.8 - Td=6.8 2020-11-18 12:13:00
1 1966-10-08 12:00:00 Ts debe ser mayor o igual a Td Ts=8.0 - Td=8.6 2020-11-18 12:13:00
1 1966-10-11 12:00:00 Ts debe ser mayor o igual a Td Ts=4.2 - Td=6.1 2020-11-18 12:13:00
1 1966-10-12 12:00:00 Ts debe ser mayor o igual a Td Ts=4.7 - Td=8.4 2020-11-18 12:13:00
1 1966-10-13 06:00:00 Ts debe ser mayor o igual a Td Ts=7.5 - Td=8.0 2020-11-18 12:13:00
1 1966-10-13 12:00:00 Ts debe ser mayor o igual a Td Ts=8.8 - Td=9.4 2020-11-18 12:13:00
1 1966-10-14 06:00:00 Ts debe ser mayor o igual a Td Ts=4.4 - Td=5.0 2020-11-18 12:13:00
1 1966-10-15 12:00:00 Ts debe ser mayor o igual a Td Ts=6.8 - Td=7.8 2020-11-18 12:13:00
1 1966-10-16 12:00:00 Ts debe ser mayor o igual a Td Ts=6.3 - Td=6.5 2020-11-18 12:13:00
1 1966-10-17 12:00:00 Ts debe ser mayor o igual a Td Ts=6.0 - Td=7.4 2020-11-18 12:13:00
1 1966-10-18 12:00:00 Ts debe ser mayor o igual a Td Ts=8.2 - Td=9.0 2020-11-18 12:13:00
1 1966-10-19 06:00:00 Ts debe ser mayor o igual a Td Ts=7.7 - Td=8.7 2020-11-18 12:13:00
1 1966-10-19 12:00:00 Ts debe ser mayor o igual a Td Ts=9.6 - Td=9.8 2020-11-18 12:13:00
1 1966-10-21 06:00:00 Ts debe ser mayor o igual a Td Ts=9.0 - Td=10.1 2020-11-18 12:13:00
1 1966-10-23 12:00:00 Ts debe ser mayor o igual a Td Ts=7.8 - Td=12.6 2020-11-18 12:13:00
1 1966-10-26 12:00:00 Ts debe ser mayor o igual a Td Ts=4.6 - Td=5.2 2020-11-18 12:13:00
1 1966-10-27 12:00:00 Ts debe ser mayor o igual a Td Ts=6.0 - Td=8.2 2020-11-18 12:13:00
1 1966-10-28 06:00:00 Ts debe ser mayor o igual a Td Ts=5.8 - Td=6.1 2020-11-18 12:13:00
1 1966-10-28 12:00:00 Ts debe ser mayor o igual a Td Ts=7.1 - Td=7.2 2020-11-18 12:13:00
1 1966-10-29 12:00:00 Ts debe ser mayor o igual a Td Ts=7.0 - Td=8.9 2020-11-18 12:13:00
1 1966-10-30 12:00:00 Ts debe ser mayor o igual a Td Ts=7.6 - Td=11.7 2020-11-18 12:13:00
1 1966-10-31 06:00:00 Ts debe ser mayor o igual a Td Ts=9.6 - Td=10.6 2020-11-18 12:13:00
1 1966-10-31 12:00:00 Ts debe ser mayor o igual a Td Ts=11.1 - Td=11.5 2020-11-18 12:13:00
1 1966-11-03 12:00:00 Ts debe ser mayor o igual a Td Ts=9.4 - Td=10.5 2020-11-18 12:54:00
1 1966-11-05 12:00:00 Ts debe ser mayor o igual a Td Ts=10.8 - Td=11.2 2020-11-18 12:54:00
1 1966-11-06 12:00:00 Ts debe ser mayor o igual a Td Ts=11.2 - Td=11.9 2020-11-18 12:54:00
1 1966-11-07 06:00:00 Ts debe ser mayor o igual a Td Ts=10.4 - Td=10.9 2020-11-18 12:54:00
1 1966-11-09 06:00:00 Ts debe ser mayor o igual a Td Ts=7.9 - Td=8.6 2020-11-18 12:54:00
1 1966-11-09 12:00:00 Ts debe ser mayor o igual a Td Ts=9.3 - Td=12.1 2020-11-18 12:54:00
1 1966-11-15 12:00:00 Ts debe ser mayor o igual a Td Ts=11.0 - Td=12.6 2020-11-18 12:54:00
1 1966-11-16 12:00:00 Ts debe ser mayor o igual a Td Ts=11.0 - Td=13.9 2020-11-18 12:54:00
1 1966-11-17 12:00:00 Ts debe ser mayor o igual a Td Ts=12.6 - Td=13.3 2020-11-18 12:54:00
1 1966-11-20 06:00:00 Ts debe ser mayor o igual a Td Ts=10.0 - Td=10.2 2020-11-18 12:54:00
1 1966-11-20 12:00:00 Ts debe ser mayor o igual a Td Ts=11.0 - Td=12.1 2020-11-18 12:54:00
1 1966-11-23 12:00:00 Ts debe ser mayor o igual a Td Ts=11.6 - Td=12.3 2020-11-18 12:54:00
1 1966-12-09 06:00:00 Ts debe ser mayor o igual a Td Ts=13.6 - Td=14.1 2020-11-18 13:22:00
1 1966-12-11 12:00:00 Ts debe ser mayor o igual a Td Ts=10.6 - Td=10.8 2020-11-18 13:23:00
1 1966-12-14 12:00:00 Ts debe ser mayor o igual a Td Ts=10.6 - Td=11.9 2020-11-18 13:23:00
1 1966-12-16 12:00:00 Ts debe ser mayor o igual a Td Ts=11.6 - Td=12.0 2020-11-18 13:23:00
1 1966-12-21 12:00:00 Ts debe ser mayor o igual a Td Ts=12.8 - Td=13.1 2020-11-18 13:23:00
1 1966-12-25 12:00:00 Ts debe ser mayor o igual a Td Ts=13.6 - Td=14.2 2020-11-18 13:23:00
1 1966-12-26 12:00:00 Ts debe ser mayor o igual a Td Ts=13.8 - Td=14.6 2020-11-18 13:23:00
1 1966-12-28 12:00:00 Ts debe ser mayor o igual a Td Ts=13.4 - Td=13.7 2020-11-18 13:23:00
1 1966-12-31 12:00:00 Ts debe ser mayor o igual a Td Ts=12.0 - Td=13.7 2020-11-18 13:23:00
1 1967-01-02 12:00:00 Ts debe ser mayor o igual a Td Ts=14.8 - Td=15.3 2020-11-18 13:26:00
1 1967-01-04 12:00:00 Ts debe ser mayor o igual a Td Ts=12.6 - Td=13.2 2020-11-18 13:26:00
1 1967-01-07 12:00:00 Ts debe ser mayor o igual a Td Ts=13.8 - Td=14.3 2020-11-18 13:27:00
1 1967-01-09 12:00:00 Ts debe ser mayor o igual a Td Ts=14.2 - Td=14.4 2020-11-18 13:27:00
1 1967-01-11 12:00:00 Ts debe ser mayor o igual a Td Ts=14.1 - Td=15.9 2020-11-18 13:27:00
1 1967-01-13 12:00:00 Ts debe ser mayor o igual a Td Ts=15.0 - Td=15.2 2020-11-18 13:27:00
1 1967-01-15 06:00:00 Ts debe ser mayor o igual a Td Ts=13.9 - Td=14.1 2020-11-18 13:27:00
1 1967-01-18 06:00:00 Ts debe ser mayor o igual a Td Ts=12.4 - Td=12.7 2020-11-18 13:27:00
1 1967-01-20 12:00:00 Ts debe ser mayor o igual a Td Ts=8.8 - Td=12.8 2020-11-18 13:27:00
1 1967-01-22 12:00:00 Ts debe ser mayor o igual a Td Ts=11.4 - Td=14.7 2020-11-18 13:27:00
1 1967-01-23 12:00:00 Ts debe ser mayor o igual a Td Ts=13.2 - Td=13.3 2020-11-18 13:27:00
1 1967-01-25 12:00:00 Ts debe ser mayor o igual a Td Ts=12.2 - Td=15.1 2020-11-18 13:27:00
1 1967-01-26 06:00:00 Ts debe ser mayor o igual a Td Ts=12.6 - Td=13.5 2020-11-18 13:27:00
1 1967-01-26 12:00:00 Ts debe ser mayor o igual a Td Ts=14.2 - Td=16.1 2020-11-18 13:27:00
1 1967-01-27 12:00:00 Ts debe ser mayor o igual a Td Ts=15.4 - Td=16.1 2020-11-18 13:27:00
1 1967-02-03 12:00:00 Ts debe ser mayor o igual a Td Ts=12.0 - Td=12.4 2020-11-18 13:30:00
1 1967-02-05 12:00:00 Ts debe ser mayor o igual a Td Ts=10.6 - Td=12.8 2020-11-18 13:30:00
1 1967-02-07 12:00:00 Ts debe ser mayor o igual a Td Ts=12.8 - Td=13.9 2020-11-18 13:30:00
1 1967-02-10 12:00:00 Ts debe ser mayor o igual a Td Ts=15.0 - Td=15.6 2020-11-18 13:30:00
1 1967-02-11 06:00:00 Ts debe ser mayor o igual a Td Ts=13.6 - Td=13.8 2020-11-18 13:30:00
1 1967-02-11 12:00:00 Ts debe ser mayor o igual a Td Ts=14.2 - Td=15.2 2020-11-18 13:30:00
1 1967-02-13 12:00:00 Ts debe ser mayor o igual a Td Ts=11.4 - Td=12.4 2020-11-18 13:30:00
1 1967-02-14 12:00:00 Ts debe ser mayor o igual a Td Ts=13.0 - Td=14.1 2020-11-18 13:30:00
1 1967-02-17 12:00:00 Ts debe ser mayor o igual a Td Ts=7.8 - Td=10.9 2020-11-18 13:30:00
1 1967-02-18 12:00:00 Ts debe ser mayor o igual a Td Ts=11.6 - Td=12.0 2020-11-18 13:30:00
1 1967-02-20 12:00:00 Ts debe ser mayor o igual a Td Ts=9.8 - Td=12.1 2020-11-18 13:30:00
1 1967-02-21 12:00:00 Ts debe ser mayor o igual a Td Ts=12.6 - Td=13.0 2020-11-18 13:30:00
1 1967-02-22 06:00:00 Ts debe ser mayor o igual a Td Ts=11.9 - Td=12.5 2020-11-18 13:30:00
1 1967-02-22 12:00:00 Ts debe ser mayor o igual a Td Ts=12.7 - Td=13.6 2020-11-18 13:30:00
1 1967-02-24 12:00:00 Ts debe ser mayor o igual a Td Ts=10.6 - Td=12.1 2020-11-18 13:31:00
1 1967-02-25 12:00:00 Ts debe ser mayor o igual a Td Ts=11.8 - Td=13.3 2020-11-18 13:31:00
1 1967-02-27 12:00:00 Ts debe ser mayor o igual a Td Ts=10.6 - Td=13.3 2020-11-18 13:31:00
1 1967-02-28 12:00:00 Ts debe ser mayor o igual a Td Ts=10.6 - Td=11.8 2020-11-18 13:31:00
1 1967-03-01 12:00:00 Ts debe ser mayor o igual a Td Ts=12.6 - Td=13.1 2020-11-18 13:40:00
1 1967-03-02 12:00:00 Ts debe ser mayor o igual a Td Ts=12.9 - Td=13.2 2020-11-18 13:40:00
1 1967-03-05 12:00:00 Ts debe ser mayor o igual a Td Ts=11.3 - Td=13.1 2020-11-18 13:40:00
1 1967-03-06 12:00:00 Ts debe ser mayor o igual a Td Ts=8.8 - Td=14.6 2020-11-18 13:40:00
1 1967-03-09 12:00:00 Ts debe ser mayor o igual a Td Ts=6.4 - Td=7.6 2020-11-18 13:40:00
1 1967-03-10 12:00:00 Ts debe ser mayor o igual a Td Ts=11.6 - Td=15.1 2020-11-18 13:40:00
1 1967-03-12 12:00:00 Ts debe ser mayor o igual a Td Ts=10.7 - Td=12.3 2020-11-18 13:40:00
1 1967-03-13 12:00:00 Ts debe ser mayor o igual a Td Ts=10.0 - Td=14.3 2020-11-18 13:40:00
1 1967-03-14 12:00:00 Ts debe ser mayor o igual a Td Ts=11.7 - Td=13.1 2020-11-18 13:40:00
1 1967-03-15 06:00:00 Ts debe ser mayor o igual a Td Ts=10.6 - Td=10.9 2020-11-18 13:40:00
1 1967-03-15 12:00:00 Ts debe ser mayor o igual a Td Ts=12.0 - Td=13.6 2020-11-18 13:40:00
1 1967-03-17 06:00:00 Ts debe ser mayor o igual a Td Ts=13.1 - Td=13.2 2020-11-18 13:40:00
1 1967-03-17 12:00:00 Ts debe ser mayor o igual a Td Ts=13.7 - Td=14.4 2020-11-18 13:40:00
1 1967-03-18 12:00:00 Ts debe ser mayor o igual a Td Ts=12.1 - Td=14.6 2020-11-18 13:40:00
1 1967-03-19 12:00:00 Ts debe ser mayor o igual a Td Ts=13.0 - Td=14.3 2020-11-18 13:40:00
1 1967-03-21 12:00:00 Ts debe ser mayor o igual a Td Ts=7.4 - Td=9.3 2020-11-18 13:40:00
1 1967-03-22 12:00:00 Ts debe ser mayor o igual a Td Ts=6.0 - Td=11.4 2020-11-18 13:40:00
1 1967-03-23 12:00:00 Ts debe ser mayor o igual a Td Ts=8.2 - Td=11.7 2020-11-18 13:40:00
1 1967-03-24 12:00:00 Ts debe ser mayor o igual a Td Ts=8.9 - Td=10.0 2020-11-18 13:40:00
1 1967-03-25 12:00:00 Ts debe ser mayor o igual a Td Ts=9.0 - Td=13.0 2020-11-18 13:40:00
1 1967-03-27 12:00:00 Ts debe ser mayor o igual a Td Ts=9.4 - Td=12.2 2020-11-18 13:40:00
1 1967-03-28 12:00:00 Ts debe ser mayor o igual a Td Ts=12.0 - Td=13.5 2020-11-18 13:40:00
1 1967-03-30 12:00:00 Ts debe ser mayor o igual a Td Ts=6.8 - Td=7.2 2020-11-18 13:40:00
1 1967-03-31 12:00:00 Ts debe ser mayor o igual a Td Ts=4.2 - Td=10.5 2020-11-18 13:40:00
1 1967-04-01 12:00:00 Ts debe ser mayor o igual a Td Ts=6.7 - Td=11.7 2020-11-18 17:18:00
1 1967-04-03 12:00:00 Ts debe ser mayor o igual a Td Ts=8.8 - Td=9.8 2020-11-18 17:18:00
1 1967-04-04 12:00:00 Ts debe ser mayor o igual a Td Ts=10.6 - Td=13.2 2020-11-18 17:18:00
1 1967-04-05 06:00:00 Ts debe ser mayor o igual a Td Ts=12.8 - Td=13.4 2020-11-18 17:18:00
1 1967-04-06 12:00:00 Ts debe ser mayor o igual a Td Ts=7.6 - Td=12.7 2020-11-18 17:18:00
1 1967-04-07 12:00:00 Ts debe ser mayor o igual a Td Ts=7.2 - Td=10.8 2020-11-18 17:18:00
1 1967-04-08 12:00:00 Ts debe ser mayor o igual a Td Ts=6.6 - Td=10.6 2020-11-18 17:18:00
1 1967-04-09 12:00:00 Ts debe ser mayor o igual a Td Ts=7.0 - Td=13.3 2020-11-18 17:18:00
1 1967-04-12 12:00:00 Ts debe ser mayor o igual a Td Ts=9.2 - Td=10.2 2020-11-18 17:18:00
1 1967-04-13 12:00:00 Ts debe ser mayor o igual a Td Ts=10.3 - Td=10.8 2020-11-18 17:18:00
1 1967-04-15 12:00:00 Ts debe ser mayor o igual a Td Ts=6.0 - Td=7.5 2020-11-18 17:18:00
1 1967-04-16 12:00:00 Ts debe ser mayor o igual a Td Ts=8.6 - Td=11.7 2020-11-18 17:18:00
1 1967-04-17 12:00:00 Ts debe ser mayor o igual a Td Ts=8.8 - Td=10.4 2020-11-18 17:18:00
1 1967-04-18 12:00:00 Ts debe ser mayor o igual a Td Ts=6.4 - Td=8.1 2020-11-18 17:18:00
1 1967-04-20 12:00:00 Ts debe ser mayor o igual a Td Ts=5.4 - Td=9.3 2020-11-18 17:19:00
1 1967-04-21 06:00:00 Ts debe ser mayor o igual a Td Ts=5.6 - Td=7.2 2020-11-18 17:19:00
1 1967-04-21 12:00:00 Ts debe ser mayor o igual a Td Ts=7.6 - Td=10.6 2020-11-18 17:19:00
1 1967-04-22 12:00:00 Ts debe ser mayor o igual a Td Ts=12.6 - Td=12.7 2020-11-18 17:19:00
1 1967-04-23 12:00:00 Ts debe ser mayor o igual a Td Ts=6.4 - Td=7.6 2020-11-18 17:19:00
1 1967-04-24 12:00:00 Ts debe ser mayor o igual a Td Ts=4.8 - Td=7.3 2020-11-18 17:19:00
1 1967-04-25 12:00:00 Ts debe ser mayor o igual a Td Ts=6.6 - Td=7.7 2020-11-18 17:19:00
1 1967-04-26 12:00:00 Ts debe ser mayor o igual a Td Ts=6.2 - Td=11.7 2020-11-18 17:19:00
1 1967-04-27 12:00:00 Ts debe ser mayor o igual a Td Ts=9.8 - Td=13.1 2020-11-18 17:19:00
1 1967-04-28 12:00:00 Ts debe ser mayor o igual a Td Ts=5.0 - Td=8.7 2020-11-18 17:19:00
1 1967-04-29 12:00:00 Ts debe ser mayor o igual a Td Ts=4.0 - Td=7.7 2020-11-18 17:19:00
1 1967-04-30 12:00:00 Ts debe ser mayor o igual a Td Ts=5.8 - Td=8.0 2020-11-18 17:19:00
1 1967-05-01 06:00:00 Ts debe ser mayor o igual a Td Ts=8.1 - Td=8.2 2020-11-18 18:11:00
1 1967-05-03 12:00:00 Ts debe ser mayor o igual a Td Ts=7.6 - Td=9.6 2020-11-18 18:11:00
1 1967-05-04 12:00:00 Ts debe ser mayor o igual a Td Ts=12.9 - Td=13.3 2020-11-18 18:11:00
1 1967-05-05 12:00:00 Ts debe ser mayor o igual a Td Ts=12.4 - Td=13.0 2020-11-18 18:11:00
1 1967-05-06 12:00:00 Ts debe ser mayor o igual a Td Ts=12.6 - Td=13.4 2020-11-18 18:11:00
1 1967-05-07 12:00:00 Ts debe ser mayor o igual a Td Ts=8.2 - Td=11.4 2020-11-18 18:11:00
1 1967-05-10 12:00:00 Ts debe ser mayor o igual a Td Ts=7.7 - Td=9.6 2020-11-18 18:11:00
1 1967-05-11 12:00:00 Ts debe ser mayor o igual a Td Ts=1.8 - Td=8.0 2020-11-18 18:11:00
1 1967-05-12 12:00:00 Ts debe ser mayor o igual a Td Ts=6.4 - Td=10.5 2020-11-18 18:11:00
1 1967-05-13 06:00:00 Ts debe ser mayor o igual a Td Ts=11.4 - Td=11.6 2020-11-18 18:11:00
1 1967-05-16 12:00:00 Ts debe ser mayor o igual a Td Ts=10.6 - Td=13.5 2020-11-18 18:11:00
1 1967-05-19 12:00:00 Ts debe ser mayor o igual a Td Ts=10.9 - Td=12.8 2020-11-18 18:11:00
1 1967-05-20 12:00:00 Ts debe ser mayor o igual a Td Ts=9.8 - Td=12.7 2020-11-18 18:11:00
1 1967-05-23 12:00:00 Ts debe ser mayor o igual a Td Ts=7.6 - Td=11.2 2020-11-18 18:11:00
1 1967-05-27 06:00:00 Ts debe ser mayor o igual a Td Ts=9.2 - Td=10.6 2020-11-18 18:11:00
1 1967-05-27 12:00:00 Ts debe ser mayor o igual a Td Ts=12.4 - Td=12.5 2020-11-18 18:11:00
1 1967-05-30 12:00:00 Ts debe ser mayor o igual a Td Ts=5.8 - Td=6.4 2020-11-18 18:11:00
1 1967-05-31 06:00:00 Ts debe ser mayor o igual a Td Ts=4.0 - Td=4.1 2020-11-18 18:11:00
1 1967-05-31 12:00:00 Ts debe ser mayor o igual a Td Ts=5.4 - Td=9.4 2020-11-18 18:11:00
1 1967-06-02 12:00:00 Ts debe ser mayor o igual a Td Ts=1.8 - Td=5.3 2020-11-18 18:17:00
1 1967-06-03 12:00:00 Ts debe ser mayor o igual a Td Ts=2.8 - Td=4.2 2020-11-18 18:17:00
1 1967-06-04 12:00:00 Ts debe ser mayor o igual a Td Ts=0.6 - Td=4.9 2020-11-18 18:17:00
1 1967-06-05 12:00:00 Ts debe ser mayor o igual a Td Ts=0.8 - Td=4.4 2020-11-18 18:17:00
1 1967-06-06 12:00:00 Ts debe ser mayor o igual a Td Ts=7.9 - Td=8.6 2020-11-18 18:17:00
1 1967-06-07 12:00:00 Ts debe ser mayor o igual a Td Ts=6.4 - Td=8.5 2020-11-18 18:17:00
1 1967-06-08 12:00:00 Ts debe ser mayor o igual a Td Ts=4.6 - Td=9.6 2020-11-18 18:17:00
1 1967-06-10 12:00:00 Ts debe ser mayor o igual a Td Ts=0.9 - Td=6.4 2020-11-18 18:17:00
1 1967-06-13 06:00:00 Ts debe ser mayor o igual a Td Ts=-1.0 - Td=-0.4 2020-11-18 18:17:00
1 1967-06-14 12:00:00 Ts debe ser mayor o igual a Td Ts=-2.1 - Td=0.9 2020-11-18 18:17:00
1 1967-06-15 12:00:00 Ts debe ser mayor o igual a Td Ts=0.2 - Td=5.2 2020-11-18 18:17:00
1 1967-06-17 12:00:00 Ts debe ser mayor o igual a Td Ts=5.8 - Td=8.5 2020-11-18 18:17:00
1 1967-06-18 12:00:00 Ts debe ser mayor o igual a Td Ts=3.2 - Td=8.3 2020-11-18 18:17:00
1 1967-06-19 12:00:00 Ts debe ser mayor o igual a Td Ts=7.3 - Td=7.7 2020-11-18 18:17:00
1 1967-06-20 06:00:00 Ts debe ser mayor o igual a Td Ts=5.7 - Td=9.3 2020-11-18 18:17:00
1 1967-06-22 12:00:00 Ts debe ser mayor o igual a Td Ts=7.6 - Td=8.2 2020-11-18 18:17:00
1 1967-06-23 12:00:00 Ts debe ser mayor o igual a Td Ts=3.0 - Td=6.4 2020-11-18 18:18:00
1 1967-06-24 12:00:00 Ts debe ser mayor o igual a Td Ts=1.0 - Td=5.9 2020-11-18 18:18:00
1 1967-06-25 12:00:00 Ts debe ser mayor o igual a Td Ts=1.2 - Td=5.7 2020-11-18 18:18:00
1 1967-06-26 12:00:00 Ts debe ser mayor o igual a Td Ts=2.6 - Td=6.3 2020-11-18 18:18:00
1 1967-06-27 12:00:00 Ts debe ser mayor o igual a Td Ts=0.1 - Td=5.9 2020-11-18 18:18:00
1 1967-06-28 12:00:00 Ts debe ser mayor o igual a Td Ts=1.0 - Td=6.9 2020-11-18 18:18:00
1 1967-06-29 12:00:00 Ts debe ser mayor o igual a Td Ts=2.6 - Td=6.3 2020-11-18 18:18:00
1 1967-06-30 12:00:00 Ts debe ser mayor o igual a Td Ts=5.4 - Td=10.0 2020-11-18 18:18:00
1 1967-07-01 12:00:00 Ts debe ser mayor o igual a Td Ts=9.3 - Td=9.6 2020-11-18 18:26:00
1 1967-07-02 12:00:00 Ts debe ser mayor o igual a Td Ts=3.3 - Td=8.8 2020-11-18 18:26:00
1 1967-07-03 12:00:00 Ts debe ser mayor o igual a Td Ts=3.2 - Td=5.7 2020-11-18 18:26:00
1 1967-07-04 12:00:00 Ts debe ser mayor o igual a Td Ts=5.2 - Td=7.0 2020-11-18 18:26:00
1 1967-07-05 12:00:00 Ts debe ser mayor o igual a Td Ts=2.1 - Td=7.4 2020-11-18 18:26:00
1 1967-07-06 06:00:00 Ts debe ser mayor o igual a Td Ts=6.8 - Td=9.1 2020-11-18 18:26:00
1 1967-07-07 12:00:00 Ts debe ser mayor o igual a Td Ts=3.0 - Td=6.2 2020-11-18 18:26:00
1 1967-07-08 12:00:00 Ts debe ser mayor o igual a Td Ts=1.2 - Td=5.5 2020-11-18 18:26:00
1 1967-07-09 12:00:00 Ts debe ser mayor o igual a Td Ts=4.4 - Td=6.3 2020-11-18 18:26:00
1 1967-07-10 12:00:00 Ts debe ser mayor o igual a Td Ts=2.9 - Td=3.8 2020-11-18 18:26:00
1 1967-07-11 12:00:00 Ts debe ser mayor o igual a Td Ts=-0.7 - Td=3.0 2020-11-18 18:26:00
1 1967-07-12 06:00:00 Ts debe ser mayor o igual a Td Ts=1.1 - Td=2.1 2020-11-18 18:26:00
1 1967-07-12 12:00:00 Ts debe ser mayor o igual a Td Ts=3.2 - Td=6.7 2020-11-18 18:26:00
1 1967-07-17 12:00:00 Ts debe ser mayor o igual a Td Ts=7.3 - Td=7.7 2020-11-18 18:26:00
1 1967-07-18 12:00:00 Ts debe ser mayor o igual a Td Ts=1.9 - Td=7.5 2020-11-18 18:26:00
1 1967-07-19 12:00:00 Ts debe ser mayor o igual a Td Ts=2.6 - Td=5.2 2020-11-18 18:26:00
1 1967-07-20 12:00:00 Ts debe ser mayor o igual a Td Ts=-0.3 - Td=2.2 2020-11-18 18:26:00
1 1967-07-21 12:00:00 Ts debe ser mayor o igual a Td Ts=6.2 - Td=6.9 2020-11-18 18:26:00
1 1967-07-22 06:00:00 Ts debe ser mayor o igual a Td Ts=4.4 - Td=7.4 2020-11-18 18:26:00
1 1967-07-22 12:00:00 Ts debe ser mayor o igual a Td Ts=8.0 - Td=9.2 2020-11-18 18:26:00
1 1967-07-23 12:00:00 Ts debe ser mayor o igual a Td Ts=10.4 - Td=10.8 2020-11-18 18:26:00
1 1967-07-26 12:00:00 Ts debe ser mayor o igual a Td Ts=5.4 - Td=5.7 2020-11-18 18:27:00
1 1967-07-27 12:00:00 Ts debe ser mayor o igual a Td Ts=0.2 - Td=4.0 2020-11-18 18:27:00
1 1967-07-28 12:00:00 Ts debe ser mayor o igual a Td Ts=-0.2 - Td=4.6 2020-11-18 18:27:00
1 1967-07-29 12:00:00 Ts debe ser mayor o igual a Td Ts=0.4 - Td=5.8 2020-11-18 18:27:00
1 1967-07-30 06:00:00 Ts debe ser mayor o igual a Td Ts=4.1 - Td=4.4 2020-11-18 18:27:00
1 1967-07-30 12:00:00 Ts debe ser mayor o igual a Td Ts=5.6 - Td=5.7 2020-11-18 18:27:00
1 1967-07-31 12:00:00 Ts debe ser mayor o igual a Td Ts=5.6 - Td=7.3 2020-11-18 18:27:00
1 1967-08-01 12:00:00 Ts debe ser mayor o igual a Td Ts=3.5 - Td=5.6 2020-11-18 18:39:00
1 1967-08-02 06:00:00 Ts debe ser mayor o igual a Td Ts=10.1 - Td=10.4 2020-11-18 18:39:00
1 1967-08-02 12:00:00 Ts debe ser mayor o igual a Td Ts=11.0 - Td=12.2 2020-11-18 18:39:00
1 1967-08-03 12:00:00 Ts debe ser mayor o igual a Td Ts=4.4 - Td=5.6 2020-11-18 18:39:00
1 1967-08-04 12:00:00 Ts debe ser mayor o igual a Td Ts=1.3 - Td=7.7 2020-11-18 18:39:00
1 1967-08-05 12:00:00 Ts debe ser mayor o igual a Td Ts=4.1 - Td=10.6 2020-11-18 18:39:00
1 1967-08-06 12:00:00 Ts debe ser mayor o igual a Td Ts=9.0 - Td=11.0 2020-11-18 18:39:00
1 1967-08-07 12:00:00 Ts debe ser mayor o igual a Td Ts=5.0 - Td=8.2 2020-11-18 18:39:00
1 1967-08-08 12:00:00 Ts debe ser mayor o igual a Td Ts=2.8 - Td=5.6 2020-11-18 18:39:00
1 1967-08-09 12:00:00 Ts debe ser mayor o igual a Td Ts=-0.3 - Td=4.7 2020-11-18 18:39:00
1 1967-08-10 12:00:00 Ts debe ser mayor o igual a Td Ts=5.6 - Td=5.8 2020-11-18 18:39:00
1 1967-08-11 06:00:00 Ts debe ser mayor o igual a Td Ts=8.0 - Td=9.4 2020-11-18 18:39:00
1 1967-08-11 12:00:00 Ts debe ser mayor o igual a Td Ts=9.8 - Td=10.9 2020-11-18 18:39:00
1 1967-08-15 12:00:00 Ts debe ser mayor o igual a Td Ts=2.7 - Td=9.4 2020-11-18 18:39:00
1 1967-08-16 12:00:00 Ts debe ser mayor o igual a Td Ts=2.6 - Td=5.6 2020-11-18 18:39:00
1 1967-08-17 12:00:00 Ts debe ser mayor o igual a Td Ts=6.0 - Td=9.7 2020-11-18 18:39:00
1 1967-08-19 12:00:00 Ts debe ser mayor o igual a Td Ts=3.7 - Td=5.4 2020-11-18 18:39:00
1 1967-08-20 12:00:00 Ts debe ser mayor o igual a Td Ts=1.6 - Td=6.2 2020-11-18 18:39:00
1 1967-08-22 12:00:00 Ts debe ser mayor o igual a Td Ts=-0.2 - Td=1.7 2020-11-18 18:39:00
1 1967-08-23 06:00:00 Ts debe ser mayor o igual a Td Ts=1.4 - Td=2.8 2020-11-18 18:39:00
1 1967-08-23 12:00:00 Ts debe ser mayor o igual a Td Ts=3.9 - Td=8.3 2020-11-18 18:39:00
1 1967-08-25 12:00:00 Ts debe ser mayor o igual a Td Ts=5.5 - Td=9.2 2020-11-18 18:39:00
1 1967-08-26 12:00:00 Ts debe ser mayor o igual a Td Ts=6.4 - Td=7.9 2020-11-18 18:39:00
1 1967-08-27 12:00:00 Ts debe ser mayor o igual a Td Ts=6.0 - Td=6.9 2020-11-18 18:39:00
1 1967-08-30 12:00:00 Ts debe ser mayor o igual a Td Ts=4.0 - Td=6.3 2020-11-18 18:39:00
1 1967-08-31 12:00:00 Ts debe ser mayor o igual a Td Ts=1.7 - Td=7.4 2020-11-18 18:39:00
1 1967-09-03 12:00:00 Ts debe ser mayor o igual a Td Ts=1.9 - Td=2.3 2020-11-18 18:46:00
1 1967-09-04 12:00:00 Ts debe ser mayor o igual a Td Ts=0.5 - Td=5.5 2020-11-18 18:44:00
1 1967-09-05 12:00:00 Ts debe ser mayor o igual a Td Ts=2.2 - Td=6.8 2020-11-18 18:44:00
1 1967-09-06 12:00:00 Ts debe ser mayor o igual a Td Ts=4.2 - Td=8.9 2020-11-18 18:44:00
1 1967-09-07 12:00:00 Ts debe ser mayor o igual a Td Ts=7.3 - Td=10.0 2020-11-18 18:44:00
1 1967-09-08 12:00:00 Ts debe ser mayor o igual a Td Ts=7.1 - Td=8.9 2020-11-18 18:44:00
1 1967-09-11 12:00:00 Ts debe ser mayor o igual a Td Ts=5.7 - Td=7.5 2020-11-18 18:44:00
1 1967-09-13 12:00:00 Ts debe ser mayor o igual a Td Ts=10.0 - Td=11.0 2020-11-18 18:44:00
1 1967-09-14 12:00:00 Ts debe ser mayor o igual a Td Ts=10.4 - Td=13.1 2020-11-18 18:44:00
1 1967-09-18 12:00:00 Ts debe ser mayor o igual a Td Ts=0.6 - Td=3.1 2020-11-18 18:44:00
1 1967-09-19 12:00:00 Ts debe ser mayor o igual a Td Ts=2.0 - Td=4.9 2020-11-18 18:44:00
1 1967-09-20 12:00:00 Ts debe ser mayor o igual a Td Ts=3.5 - Td=6.1 2020-11-18 18:44:00
1 1967-09-21 12:00:00 Ts debe ser mayor o igual a Td Ts=6.3 - Td=7.8 2020-11-18 18:44:00
1 1967-09-22 12:00:00 Ts debe ser mayor o igual a Td Ts=5.8 - Td=6.7 2020-11-18 18:44:00
1 1967-09-23 12:00:00 Ts debe ser mayor o igual a Td Ts=3.4 - Td=7.7 2020-11-18 18:44:00
1 1967-09-26 12:00:00 Ts debe ser mayor o igual a Td Ts=5.6 - Td=9.7 2020-11-18 18:44:00
1 1967-09-27 12:00:00 Ts debe ser mayor o igual a Td Ts=7.2 - Td=8.7 2020-11-18 18:44:00
1 1967-09-28 12:00:00 Ts debe ser mayor o igual a Td Ts=6.0 - Td=7.8 2020-11-18 18:44:00
1 1967-09-30 12:00:00 Ts debe ser mayor o igual a Td Ts=6.8 - Td=9.3 2020-11-18 18:44:00
1 1967-10-03 12:00:00 Ts debe ser mayor o igual a Td Ts=10.4 - Td=11.7 2020-11-18 18:51:00
1 1967-10-04 12:00:00 Ts debe ser mayor o igual a Td Ts=5.7 - Td=10.5 2020-11-18 18:51:00
1 1967-10-05 12:00:00 Ts debe ser mayor o igual a Td Ts=11.4 - Td=11.8 2020-11-18 18:51:00
1 1967-10-06 12:00:00 Ts debe ser mayor o igual a Td Ts=12.3 - Td=13.6 2020-11-18 18:51:00
1 1967-10-09 12:00:00 Ts debe ser mayor o igual a Td Ts=8.4 - Td=9.8 2020-11-18 18:51:00
1 1967-10-10 06:00:00 Ts debe ser mayor o igual a Td Ts=8.1 - Td=9.4 2020-11-18 18:51:00
1 1967-10-12 06:00:00 Ts debe ser mayor o igual a Td Ts=10.3 - Td=10.4 2020-11-18 18:51:00
1 1967-10-15 12:00:00 Ts debe ser mayor o igual a Td Ts=7.8 - Td=8.6 2020-11-18 18:51:00
1 1967-10-16 12:00:00 Ts debe ser mayor o igual a Td Ts=4.5 - Td=9.9 2020-11-18 18:51:00
1 1967-10-18 12:00:00 Ts debe ser mayor o igual a Td Ts=7.0 - Td=8.0 2020-11-18 18:51:00
1 1967-10-19 12:00:00 Ts debe ser mayor o igual a Td Ts=6.3 - Td=9.1 2020-11-18 18:51:00
1 1967-10-20 12:00:00 Ts debe ser mayor o igual a Td Ts=6.6 - Td=7.3 2020-11-18 18:51:00
1 1967-10-21 12:00:00 Ts debe ser mayor o igual a Td Ts=8.3 - Td=8.8 2020-11-18 18:51:00
1 1967-10-22 12:00:00 Ts debe ser mayor o igual a Td Ts=6.0 - Td=10.7 2020-11-18 18:51:00
1 1967-10-23 12:00:00 Ts debe ser mayor o igual a Td Ts=9.6 - Td=12.2 2020-11-18 18:51:00
1 1967-10-24 12:00:00 Ts debe ser mayor o igual a Td Ts=7.3 - Td=12.1 2020-11-18 18:51:00
1 1967-10-26 12:00:00 Ts debe ser mayor o igual a Td Ts=11.6 - Td=11.7 2020-11-18 18:51:00
1 1967-10-28 12:00:00 Ts debe ser mayor o igual a Td Ts=9.8 - Td=10.5 2020-11-18 18:51:00
1 1967-10-29 12:00:00 Ts debe ser mayor o igual a Td Ts=8.2 - Td=10.1 2020-11-18 18:51:00
1 1967-10-30 12:00:00 Ts debe ser mayor o igual a Td Ts=10.0 - Td=11.5 2020-11-18 18:51:00
1 1967-10-31 06:00:00 Ts debe ser mayor o igual a Td Ts=11.0 - Td=11.1 2020-11-18 18:51:00
1 1967-11-03 12:00:00 Ts debe ser mayor o igual a Td Ts=10.0 - Td=11.5 2020-11-18 18:56:00
1 1967-11-05 06:00:00 Ts debe ser mayor o igual a Td Ts=9.4 - Td=11.5 2020-11-18 18:56:00
1 1967-11-10 06:00:00 Ts debe ser mayor o igual a Td Ts=7.8 - Td=10.4 2020-11-18 18:56:00
1 1967-11-10 12:00:00 Ts debe ser mayor o igual a Td Ts=8.0 - Td=9.6 2020-11-18 18:56:00
1 1967-11-11 12:00:00 Ts debe ser mayor o igual a Td Ts=9.9 - Td=11.2 2020-11-18 18:56:00
1 1967-11-13 06:00:00 Ts debe ser mayor o igual a Td Ts=10.3 - Td=11.2 2020-11-18 18:56:00
1 1967-11-14 06:00:00 Ts debe ser mayor o igual a Td Ts=8.8 - Td=9.0 2020-11-18 18:56:00
1 1967-11-14 12:00:00 Ts debe ser mayor o igual a Td Ts=10.4 - Td=10.7 2020-11-18 18:56:00
1 1967-11-15 12:00:00 Ts debe ser mayor o igual a Td Ts=11.8 - Td=13.3 2020-11-18 18:56:00
1 1967-11-16 06:00:00 Ts debe ser mayor o igual a Td Ts=10.3 - Td=10.7 2020-11-18 18:56:00
1 1967-11-16 12:00:00 Ts debe ser mayor o igual a Td Ts=11.3 - Td=12.1 2020-11-18 18:56:00
1 1967-11-17 06:00:00 Ts debe ser mayor o igual a Td Ts=13.4 - Td=13.5 2020-11-18 18:56:00
1 1967-12-01 12:00:00 Ts debe ser mayor o igual a Td Ts=10.4 - Td=11.8 2020-11-18 19:02:00
1 1967-12-02 06:00:00 Ts debe ser mayor o igual a Td Ts=6.9 - Td=8.1 2020-11-18 19:02:00
1 1967-12-06 12:00:00 Ts debe ser mayor o igual a Td Ts=13.2 - Td=13.8 2020-11-18 19:02:00
1 1967-12-07 12:00:00 Ts debe ser mayor o igual a Td Ts=14.2 - Td=14.7 2020-11-18 19:02:00
1 1967-12-08 06:00:00 Ts debe ser mayor o igual a Td Ts=11.8 - Td=13.8 2020-11-18 19:02:00
1 1967-12-10 12:00:00 Ts debe ser mayor o igual a Td Ts=13.0 - Td=13.4 2020-11-18 19:02:00
1 1967-12-15 12:00:00 Ts debe ser mayor o igual a Td Ts=13.2 - Td=14.4 2020-11-18 19:02:00
1 1951-03-08 12:00:00 (ts - td > 5.0) y ((ww >= 40 y ww <= 49)) 44 2020-03-13 15:11:00
1 1951-12-09 13:00:00 (ts - td > 5.0) y ((ww >= 40 y ww <= 49)) 41 2020-04-01 15:10:00
1 1953-07-12 14:00:00 ts > 3.0 y ( (ww >= 48 y ww <= 49) o (ww >= 56 y ww <= 57) o (ww >=66 y ww <= 67)) 57 2013-12-23 13:38:00
1 1954-01-10 18:00:00 ts > 3.0 y ( (ww >= 48 y ww <= 49) o (ww >= 56 y ww <= 57) o (ww >=66 y ww <= 67)) 57 2020-01-16 17:19:00
1 1954-01-10 19:00:00 ts > 3.0 y ( (ww >= 48 y ww <= 49) o (ww >= 56 y ww <= 57) o (ww >=66 y ww <= 67)) 57 2020-01-16 17:19:00
1 1957-10-08 18:00:00 ts > 5.0 y ((ww >= 70 y ww <= 79) || (ww >= 85 y ww <= 88))) 88 2020-01-16 19:27:00
1 1959-07-13 14:00:00 ts > 5.0 y ((ww >= 70 y ww <= 79) || (ww >= 85 y ww <= 88))) 85 2019-12-26 19:03:00
1 1960-03-10 19:00:00 (ts - td > 5.0) y ((ww >= 40 y ww <= 49)) 40 2019-12-13 15:33:00
1 1967-09-12 12:00:00 ts > 5.0 y ((ww >= 70 y ww <= 79) || (ww >= 85 y ww <= 88))) 87 2020-11-20 17:22:00
1 1952-08-20 20:00:00 ff < 19kt y ((ww >= 31 y ww <= 35) o (ww == 37 o ww == 39 o ww >= 98))) 2020-02-04 18:34:00
1 1952-12-23 12:00:00 Viento calma fue mal ingresado. dd = 0 - ff = 1 2020-03-03 19:09:00
1 1967-11-06 23:00:00 Viento calma fue mal ingresado. dd = 10 - ff = 0 2020-11-13 12:22:00
Errores del Nivel 1004
Nivel Fecha del Dato Descripción Información Error Fecha Ingreso
2 1951-03-30 00:00:00 Temperatura 19.0 del 29-03-1951 18:00, Mayor que la Máxima 16.0 30-03-1951 00:00 19.0 -- 16.0 2020-04-06 19:37:00
2 1951-06-04 00:00:00 Temperatura 14.0 del 03-06-1951 14:00, Mayor que la Máxima 13.0 04-06-1951 00:00 14.0 -- 13.0 2020-04-06 20:17:00
2 1951-06-13 00:00:00 Temperatura 14.0 del 12-06-1951 13:00, Mayor que la Máxima 13.0 13-06-1951 00:00 14.0 -- 13.0 2020-04-06 20:17:00
2 1951-07-13 00:00:00 Temperatura 13.5 del 12-07-1951 18:00, Mayor que la Máxima 13.0 13-07-1951 00:00 13.5 -- 13.0 2020-04-06 20:38:00
2 1951-07-14 00:00:00 Temperatura 14.1 del 13-07-1951 23:00, Mayor que la Máxima 14.0 14-07-1951 00:00 14.1 -- 14.0 2020-04-06 20:38:00
2 1951-07-17 00:00:00 Temperatura 12.5 del 16-07-1951 19:00, Mayor que la Máxima 12.4 17-07-1951 00:00 12.5 -- 12.4 2020-04-06 20:38:00
2 1951-07-22 00:00:00 Temperatura 15.6 del 21-07-1951 21:00, Mayor que la Máxima 15.0 22-07-1951 00:00 15.6 -- 15.0 2020-04-06 20:38:00
2 1951-07-23 00:00:00 Temperatura 18.1 del 22-07-1951 20:00, Mayor que la Máxima 18.0 23-07-1951 00:00 18.1 -- 18.0 2020-04-06 20:38:00
2 1951-07-24 00:00:00 Temperatura 13.6 del 23-07-1951 18:00, Mayor que la Máxima 13.4 24-07-1951 00:00 13.6 -- 13.4 2020-04-06 20:38:00
2 1951-08-07 00:00:00 Temperatura 14.6 del 06-08-1951 17:00, Mayor que la Máxima 14.5 07-08-1951 00:00 14.6 -- 14.5 2020-04-06 20:59:00
2 1951-08-08 00:00:00 Temperatura 14.3 del 07-08-1951 20:00, Mayor que la Máxima 14.2 08-08-1951 00:00 14.3 -- 14.2 2020-04-06 20:59:00
2 1951-08-23 00:00:00 Temperatura 14.5 del 22-08-1951 19:00, Mayor que la Máxima 14.0 23-08-1951 00:00 14.5 -- 14.0 2020-04-06 20:59:00
2 1951-09-04 00:00:00 Temperatura 16.0 del 03-09-1951 17:00, Mayor que la Máxima 15.5 04-09-1951 00:00 16.0 -- 15.5 2020-04-06 21:09:00
2 1951-09-09 00:00:00 Temperatura 15.0 del 08-09-1951 18:00, Mayor que la Máxima 14.0 09-09-1951 00:00 15.0 -- 14.0 2020-04-06 21:09:00
2 1951-09-19 00:00:00 Temperatura 16.2 del 18-09-1951 18:00, Mayor que la Máxima 16.0 19-09-1951 00:00 16.2 -- 16.0 2020-04-06 21:09:00
2 1951-09-21 00:00:00 Temperatura 16.5 del 20-09-1951 18:00, Mayor que la Máxima 16.0 21-09-1951 00:00 16.5 -- 16.0 2020-04-06 21:09:00
2 1951-10-08 00:00:00 Temperatura 17.2 del 07-10-1951 20:00, Mayor que la Máxima 17.0 08-10-1951 00:00 17.2 -- 17.0 2020-04-06 21:20:00
2 1951-10-19 00:00:00 Temperatura 18.7 del 18-10-1951 18:00, Mayor que la Máxima 18.6 19-10-1951 00:00 18.7 -- 18.6 2020-04-06 21:20:00
2 1951-11-09 00:00:00 Temperatura 22.0 del 08-11-1951 19:00, Mayor que la Máxima 21.1 09-11-1951 00:00 22.0 -- 21.1 2020-04-06 21:31:00
2 1951-11-15 00:00:00 Temperatura 13.2 del 14-11-1951 21:00, Mayor que la Máxima 13.1 15-11-1951 00:00 13.2 -- 13.1 2020-04-06 21:31:00
2 1951-11-30 00:00:00 Temperatura 22.5 del 29-11-1951 19:00, Mayor que la Máxima 22.3 30-11-1951 00:00 22.5 -- 22.3 2020-04-06 21:31:00
2 1952-03-07 00:00:00 Temperatura 24.0 del 06-03-1952 18:00, Mayor que la Máxima 23.0 07-03-1952 00:00 24.0 -- 23.0 2020-03-04 14:18:00
2 1952-03-21 00:00:00 Temperatura 22.0 del 20-03-1952 20:00, Mayor que la Máxima 21.0 21-03-1952 00:00 22.0 -- 21.0 2020-03-04 14:18:00
2 1952-05-13 00:00:00 Temperatura 16.5 del 12-05-1952 20:00, Mayor que la Máxima 16.0 13-05-1952 00:00 16.5 -- 16.0 2020-03-04 14:32:00
2 1952-05-25 00:00:00 Temperatura 18.0 del 24-05-1952 19:00, Mayor que la Máxima 17.5 25-05-1952 00:00 18.0 -- 17.5 2020-03-04 14:32:00
2 1952-06-11 00:00:00 Temperatura 14.0 del 10-06-1952 18:00, Mayor que la Máxima 13.5 11-06-1952 00:00 14.0 -- 13.5 2020-03-04 14:39:00
2 1952-06-30 00:00:00 Temperatura 14.4 del 29-06-1952 20:00, Mayor que la Máxima 14.0 30-06-1952 00:00 14.4 -- 14.0 2020-03-04 14:39:00
2 1952-07-07 00:00:00 Temperatura 14.0 del 06-07-1952 16:00, Mayor que la Máxima 13.5 07-07-1952 00:00 14.0 -- 13.5 2020-03-04 17:25:00
2 1952-07-16 00:00:00 Temperatura 12.5 del 15-07-1952 22:00, Mayor que la Máxima 12.0 16-07-1952 00:00 12.5 -- 12.0 2020-03-04 17:25:00
2 1952-07-19 00:00:00 Temperatura 13.0 del 18-07-1952 19:00, Mayor que la Máxima 12.0 19-07-1952 00:00 13.0 -- 12.0 2020-03-04 17:25:00
2 1952-08-08 00:00:00 Temperatura 15.2 del 07-08-1952 17:00, Mayor que la Máxima 14.0 08-08-1952 00:00 15.2 -- 14.0 2020-03-04 18:12:00
2 1952-08-11 00:00:00 Temperatura 15.5 del 10-08-1952 20:00, Mayor que la Máxima 15.0 11-08-1952 00:00 15.5 -- 15.0 2020-03-04 18:12:00
2 1952-08-20 00:00:00 Temperatura 14.0 del 19-08-1952 17:00, Mayor que la Máxima 1.5 20-08-1952 00:00 14.0 -- 1.5 2020-03-04 18:12:00
2 1952-10-02 00:00:00 Temperatura 18.6 del 01-10-1952 18:00, Mayor que la Máxima 18.0 02-10-1952 00:00 18.6 -- 18.0 2020-03-04 18:37:00
2 1952-11-04 00:00:00 Temperatura 20.1 del 03-11-1952 17:00, Mayor que la Máxima 20.0 04-11-1952 00:00 20.1 -- 20.0 2020-03-04 18:45:00
2 1952-11-09 00:00:00 Temperatura 17.4 del 08-11-1952 15:00, Mayor que la Máxima 17.0 09-11-1952 00:00 17.4 -- 17.0 2020-03-04 18:45:00
2 1952-11-24 00:00:00 Temperatura 21.4 del 23-11-1952 17:00, Mayor que la Máxima 21.0 24-11-1952 00:00 21.4 -- 21.0 2020-03-04 18:45:00
2 1952-12-02 00:00:00 Temperatura 19.5 del 01-12-1952 18:00, Mayor que la Máxima 19.0 02-12-1952 00:00 19.5 -- 19.0 2020-03-04 19:56:00
2 1952-12-05 00:00:00 Temperatura 24.6 del 04-12-1952 15:00, Mayor que la Máxima 24.0 05-12-1952 00:00 24.6 -- 24.0 2020-03-04 19:56:00
2 1953-01-09 00:00:00 Temperatura 22.5 del 08-01-1953 19:00, Mayor que la Máxima 22.0 09-01-1953 00:00 22.5 -- 22.0 2013-12-19 15:21:00
2 1953-01-20 00:00:00 Temperatura 18.0 del 19-01-1953 22:00, Mayor que la Máxima 17.0 20-01-1953 00:00 18.0 -- 17.0 2013-12-19 15:22:00
2 1953-02-14 00:00:00 Temperatura 18.4 del 13-02-1953 17:00, Mayor que la Máxima 18.2 14-02-1953 00:00 18.4 -- 18.2 2013-12-19 15:47:00
2 1953-03-15 00:00:00 Temperatura 17.5 del 14-03-1953 18:00, Mayor que la Máxima 17.0 15-03-1953 00:00 17.5 -- 17.0 2013-12-19 16:43:00
2 1953-04-05 00:00:00 Temperatura 16.3 del 04-04-1953 19:00, Mayor que la Máxima 15.6 05-04-1953 00:00 16.3 -- 15.6 2013-12-19 17:39:00
2 1953-04-20 00:00:00 Temperatura 17.3 del 19-04-1953 21:00, Mayor que la Máxima 17.0 20-04-1953 00:00 17.3 -- 17.0 2013-12-19 17:39:00
2 1953-04-24 00:00:00 Temperatura 22.5 del 23-04-1953 17:00, Mayor que la Máxima 22.0 24-04-1953 00:00 22.5 -- 22.0 2013-12-19 17:40:00
2 1953-05-02 00:00:00 Temperatura 17.3 del 01-05-1953 20:00, Mayor que la Máxima 17.0 02-05-1953 00:00 17.3 -- 17.0 2013-12-19 18:13:00
2 1953-05-16 00:00:00 Temperatura 16.0 del 15-05-1953 15:00, Mayor que la Máxima 15.5 16-05-1953 00:00 16.0 -- 15.5 2013-12-19 18:14:00
2 1953-05-29 00:00:00 Temperatura 14.0 del 28-05-1953 17:00, Mayor que la Máxima 13.0 29-05-1953 00:00 14.0 -- 13.0 2013-12-19 18:14:00
2 1953-05-31 00:00:00 Temperatura 17.0 del 30-05-1953 18:00, Mayor que la Máxima 12.0 31-05-1953 00:00 17.0 -- 12.0 2013-12-19 18:14:00
2 1953-06-05 00:00:00 Temperatura 13.3 del 04-06-1953 20:00, Mayor que la Máxima 13.0 05-06-1953 00:00 13.3 -- 13.0 2013-12-19 18:33:00
2 1953-06-09 00:00:00 Temperatura 13.8 del 08-06-1953 18:00, Mayor que la Máxima 13.5 09-06-1953 00:00 13.8 -- 13.5 2013-12-19 18:33:00
2 1953-07-02 00:00:00 Temperatura 12.5 del 01-07-1953 20:00, Mayor que la Máxima 12.0 02-07-1953 00:00 12.5 -- 12.0 2014-01-08 14:04:00
2 1953-07-26 00:00:00 Temperatura 12.5 del 25-07-1953 17:00, Mayor que la Máxima 12.0 26-07-1953 00:00 12.5 -- 12.0 2014-01-08 14:05:00
2 1953-08-01 00:00:00 Temperatura 16.0 del 31-07-1953 18:00, Mayor que la Máxima 14.6 01-08-1953 00:00 16.0 -- 14.6 2014-01-08 14:05:00
2 1953-11-08 00:00:00 Temperatura 18.0 del 07-11-1953 15:00, Mayor que la Máxima 16.8 08-11-1953 00:00 18.0 -- 16.8 2014-01-08 15:11:00
2 1953-11-26 00:00:00 Temperatura 20.5 del 25-11-1953 17:00, Mayor que la Máxima 20.0 26-11-1953 00:00 20.5 -- 20.0 2014-01-08 15:11:00
2 1955-01-24 00:00:00 Temperatura 24.0 del 23-01-1955 20:00, Mayor que la Máxima 23.8 24-01-1955 00:00 24.0 -- 23.8 2020-03-16 14:17:00
2 1955-05-02 00:00:00 Temperatura 18.0 del 01-05-1955 19:00, Mayor que la Máxima 17.0 02-05-1955 00:00 18.0 -- 17.0 2020-03-16 16:11:00
2 1955-08-18 00:00:00 Temperatura 11.0 del 17-08-1955 15:00, Mayor que la Máxima 10.0 18-08-1955 00:00 11.0 -- 10.0 2020-03-16 19:12:00
2 1955-09-05 00:00:00 Temperatura 13.8 del 04-09-1955 17:00, Mayor que la Máxima 9.0 05-09-1955 00:00 13.8 -- 9.0 2020-03-16 19:20:00
2 1955-09-12 00:00:00 Temperatura 11.6 del 11-09-1955 15:00, Mayor que la Máxima 11.0 12-09-1955 00:00 11.6 -- 11.0 2020-03-16 19:25:00
2 1955-09-26 00:00:00 Temperatura 17.7 del 25-09-1955 20:00, Mayor que la Máxima 17.0 26-09-1955 00:00 17.7 -- 17.0 2020-03-16 19:27:00
2 1955-11-28 00:00:00 Temperatura 18.0 del 27-11-1955 22:00, Mayor que la Máxima 17.3 28-11-1955 00:00 18.0 -- 17.3 2020-03-16 19:58:00
2 1956-01-01 00:00:00 Temperatura 18.0 del 31-12-1955 16:00, Mayor que la Máxima 17.0 01-01-1956 00:00 18.0 -- 17.0 2020-03-06 17:18:00
2 1956-01-06 00:00:00 Temperatura 20.2 del 05-01-1956 19:00, Mayor que la Máxima 20.0 06-01-1956 00:00 20.2 -- 20.0 2020-03-06 17:21:00
2 1956-01-08 00:00:00 Temperatura 21.5 del 07-01-1956 19:00, Mayor que la Máxima 21.0 08-01-1956 00:00 21.5 -- 21.0 2020-03-06 17:21:00
2 1956-02-08 00:00:00 Temperatura 23.9 del 07-02-1956 18:00, Mayor que la Máxima 23.0 08-02-1956 00:00 23.9 -- 23.0 2020-03-06 18:53:00
2 1956-02-27 00:00:00 Temperatura 16.8 del 26-02-1956 14:00, Mayor que la Máxima 16.0 27-02-1956 00:00 16.8 -- 16.0 2020-03-09 12:08:00
2 1958-04-28 00:00:00 Temperatura 16.8 del 27-04-1958 18:00, Mayor que la Máxima 16.0 28-04-1958 00:00 16.8 -- 16.0 2020-01-08 18:56:00
2 1958-04-30 00:00:00 Temperatura 16.9 del 29-04-1958 17:00, Mayor que la Máxima 16.4 30-04-1958 00:00 16.9 -- 16.4 2020-01-08 18:56:00
2 1958-05-02 00:00:00 Temperatura 14.9 del 01-05-1958 17:00, Mayor que la Máxima 14.6 02-05-1958 00:00 14.9 -- 14.6 2020-01-08 19:06:00
2 1958-07-11 00:00:00 Temperatura 15.7 del 10-07-1958 19:00, Mayor que la Máxima 15.6 11-07-1958 00:00 15.7 -- 15.6 2020-01-08 19:30:00
2 1958-11-04 00:00:00 Temperatura 18.4 del 03-11-1958 21:00, Mayor que la Máxima 18.2 04-11-1958 00:00 18.4 -- 18.2 2020-01-09 12:53:00
2 1959-06-04 00:00:00 Temperatura 12.8 del 03-06-1959 18:00, Mayor que la Máxima 12.6 04-06-1959 00:00 12.8 -- 12.6 2020-01-14 18:52:00
2 1959-08-29 00:00:00 Temperatura 12.4 del 28-08-1959 14:00, Mayor que la Máxima 12.2 29-08-1959 00:00 12.4 -- 12.2 2020-01-14 19:39:00
2 1960-01-01 00:00:00 Temperatura 25.5 del 31-12-1959 21:00, Mayor que la Máxima 20.0 01-01-1960 00:00 25.5 -- 20.0 2020-01-14 20:11:00
2 1960-02-03 00:00:00 Temperatura 24.0 del 02-02-1960 18:00, Mayor que la Máxima 23.8 03-02-1960 00:00 24.0 -- 23.8 2020-01-15 14:53:00
2 1960-08-30 00:00:00 Temperatura 11.0 del 29-08-1960 16:00, Mayor que la Máxima 10.8 30-08-1960 00:00 11.0 -- 10.8 2020-01-15 19:27:00
2 1960-09-17 00:00:00 Temperatura 17.0 del 16-09-1960 16:00, Mayor que la Máxima 16.4 17-09-1960 00:00 17.0 -- 16.4 2020-01-15 19:32:00
2 1964-05-12 00:00:00 Temperatura 16.0 del 11-05-1964 18:00, Mayor que la Máxima 15.6 12-05-1964 00:00 16.0 -- 15.6 2020-11-13 18:42:00
2 1964-05-23 00:00:00 Temperatura 17.4 del 22-05-1964 18:00, Mayor que la Máxima 16.5 23-05-1964 00:00 17.4 -- 16.5 2020-11-13 18:42:00
2 1964-10-21 00:00:00 Temperatura 20.3 del 20-10-1964 18:00, Mayor que la Máxima 20.2 21-10-1964 00:00 20.3 -- 20.2 2020-11-13 19:05:00
2 1964-12-25 00:00:00 Temperatura 21.4 del 24-12-1964 18:00, Mayor que la Máxima 21.0 25-12-1964 00:00 21.4 -- 21.0 2020-11-13 19:30:00
2 1965-04-01 00:00:00 Temperatura 20.4 del 31-03-1965 18:00, Mayor que la Máxima 11.1 01-04-1965 00:00 20.4 -- 11.1 2020-11-13 19:45:00
2 1967-09-02 00:00:00 Temperatura 12.7 del 01-09-1967 18:00, Mayor que la Máxima 12.1 02-09-1967 00:00 12.7 -- 12.1 2020-11-16 14:44:00
2 1967-10-03 00:00:00 Temperatura 16.7 del 02-10-1967 18:00, Mayor que la Máxima 16.2 03-10-1967 00:00 16.7 -- 16.2 2020-11-16 15:04:00
2 1967-10-07 00:00:00 Temperatura 18.9 del 06-10-1967 18:00, Mayor que la Máxima 15.2 07-10-1967 00:00 18.9 -- 15.2 2020-11-16 15:04:00
2 1967-10-16 00:00:00 Temperatura 15.4 del 15-10-1967 18:00, Mayor que la Máxima 12.2 16-10-1967 00:00 15.4 -- 12.2 2020-11-16 15:05:00
2 1967-10-23 00:00:00 Temperatura 22.2 del 22-10-1967 23:00, Mayor que la Máxima 16.8 23-10-1967 00:00 22.2 -- 16.8 2020-11-16 15:05:00
2 1967-10-30 00:00:00 Temperatura 16.3 del 29-10-1967 18:00, Mayor que la Máxima 16.0 30-10-1967 00:00 16.3 -- 16.0 2020-11-16 15:05:00
2 1951-04-06 12:00:00 Temperatura 10.0 del 06-04-1951 12:00, Menor que la Mínima 10.3 06-04-1951 12:00 10.0 -- 10.3 2020-03-16 17:33:00
2 1951-10-02 12:00:00 Temperatura 12.0 del 02-10-1951 10:00, Menor que la Mínima 12.3 02-10-1951 12:00 12.0 -- 12.3 2020-03-27 15:18:00
2 1951-11-15 12:00:00 Temperatura 11.0 del 15-11-1951 11:00, Menor que la Mínima 11.2 15-11-1951 12:00 11.0 -- 11.2 2020-03-31 14:26:00
2 1951-11-19 12:00:00 Temperatura 2.0 del 19-11-1951 12:00, Menor que la Mínima 5.0 19-11-1951 12:00 2.0 -- 5.0 2020-03-31 15:26:00
2 1952-03-05 12:00:00 Temperatura 7.0 del 05-03-1952 10:00, Menor que la Mínima 14.0 05-03-1952 12:00 7.0 -- 14.0 2020-01-27 19:43:00
2 1952-05-13 12:00:00 Temperatura 11.0 del 13-05-1952 11:00, Menor que la Mínima 12.0 13-05-1952 12:00 11.0 -- 12.0 2020-01-30 14:46:00
2 1952-05-16 12:00:00 Temperatura 10.0 del 16-05-1952 11:00, Menor que la Mínima 11.0 16-05-1952 12:00 10.0 -- 11.0 2020-01-30 15:12:00
2 1952-05-31 12:00:00 Temperatura 3.0 del 31-05-1952 11:00, Menor que la Mínima 3.5 31-05-1952 12:00 3.0 -- 3.5 2020-01-30 19:27:00
2 1952-07-02 12:00:00 Temperatura 1.0 del 02-07-1952 10:00, Menor que la Mínima 5.0 02-07-1952 12:00 1.0 -- 5.0 2020-02-03 13:57:00
2 1952-07-07 12:00:00 Temperatura 10.0 del 07-07-1952 11:00, Menor que la Mínima 11.0 07-07-1952 12:00 10.0 -- 11.0 2020-02-03 15:23:00
2 1952-07-09 12:00:00 Temperatura 9.0 del 09-07-1952 11:00, Menor que la Mínima 10.0 09-07-1952 12:00 9.0 -- 10.0 2020-02-03 17:37:00
2 1952-08-29 12:00:00 Temperatura 4.0 del 29-08-1952 11:00, Menor que la Mínima 6.0 29-08-1952 12:00 4.0 -- 6.0 2020-02-05 12:49:00
2 1952-09-18 12:00:00 Temperatura 3.0 del 18-09-1952 10:00, Menor que la Mínima 5.0 18-09-1952 12:00 3.0 -- 5.0 2020-02-05 18:34:00
2 1952-10-18 12:00:00 Temperatura 8.0 del 18-10-1952 11:00, Menor que la Mínima 8.8 18-10-1952 12:00 8.0 -- 8.8 2020-02-07 12:44:00
2 1952-11-08 12:00:00 Temperatura 2.0 del 08-11-1952 11:00, Menor que la Mínima 2.1 08-11-1952 12:00 2.0 -- 2.1 2020-02-07 18:53:00
2 1952-12-26 12:00:00 Temperatura 11.4 del 26-12-1952 11:00, Menor que la Mínima 11.5 26-12-1952 12:00 11.4 -- 11.5 2020-03-03 20:21:00
2 1953-03-18 12:00:00 Temperatura 8.0 del 18-03-1953 11:00, Menor que la Mínima 9.5 18-03-1953 12:00 8.0 -- 9.5 2013-12-10 19:05:00
2 1953-04-15 12:00:00 Temperatura 2.0 del 15-04-1953 11:00, Menor que la Mínima 4.0 15-04-1953 12:00 2.0 -- 4.0 2013-12-12 13:09:00
2 1953-04-21 12:00:00 Temperatura 9.0 del 21-04-1953 11:00, Menor que la Mínima 9.5 21-04-1953 12:00 9.0 -- 9.5 2013-12-12 15:40:00
2 1954-08-22 12:00:00 Temperatura 6.0 del 22-08-1954 11:00, Menor que la Mínima 6.5 22-08-1954 12:00 6.0 -- 6.5 2020-02-11 13:56:00
2 1954-11-02 12:00:00 Temperatura 6.0 del 02-11-1954 11:00, Menor que la Mínima 6.5 02-11-1954 12:00 6.0 -- 6.5 2020-02-11 14:19:00
2 1955-02-03 12:00:00 Temperatura 9.0 del 03-02-1955 11:00, Menor que la Mínima 13.0 03-02-1955 12:00 9.0 -- 13.0 2020-01-17 15:19:00
2 1955-03-21 12:00:00 Temperatura 6.0 del 21-03-1955 12:00, Menor que la Mínima 14.0 21-03-1955 12:00 6.0 -- 14.0 2020-01-22 15:19:00
2 1955-05-14 12:00:00 Temperatura 9.0 del 14-05-1955 11:00, Menor que la Mínima 9.5 14-05-1955 12:00 9.0 -- 9.5 2020-01-29 16:06:00
2 1955-10-05 12:00:00 Temperatura 2.5 del 05-10-1955 11:00, Menor que la Mínima 3.0 05-10-1955 12:00 2.5 -- 3.0 2020-03-05 19:47:00
2 1957-08-05 12:00:00 Temperatura 8.3 del 05-08-1957 10:00, Menor que la Mínima 8.5 05-08-1957 12:00 8.3 -- 8.5 2020-01-13 13:38:00
2 1957-11-15 12:00:00 Temperatura 9.2 del 15-11-1957 10:00, Menor que la Mínima 9.7 15-11-1957 12:00 9.2 -- 9.7 2020-01-20 19:18:00
2 1957-12-31 12:00:00 Temperatura 9.4 del 31-12-1957 10:00, Menor que la Mínima 9.5 31-12-1957 12:00 9.4 -- 9.5 2020-01-22 19:08:00
2 1958-02-08 12:00:00 Temperatura 10.8 del 08-02-1958 10:00, Menor que la Mínima 11.3 08-02-1958 12:00 10.8 -- 11.3 2019-12-03 17:44:00
2 1958-02-10 12:00:00 Temperatura 9.8 del 10-02-1958 06:00, Menor que la Mínima 10.0 10-02-1958 12:00 9.8 -- 10.0 2019-12-03 18:01:00
2 1958-02-13 12:00:00 Temperatura 9.8 del 13-02-1958 10:00, Menor que la Mínima 10.0 13-02-1958 12:00 9.8 -- 10.0 2019-12-03 19:06:00
2 1958-03-21 12:00:00 Temperatura 13.6 del 21-03-1958 10:00, Menor que la Mínima 14.0 21-03-1958 12:00 13.6 -- 14.0 2019-12-05 14:46:00
2 1958-03-26 12:00:00 Temperatura 14.8 del 26-03-1958 09:00, Menor que la Mínima 15.0 26-03-1958 12:00 14.8 -- 15.0 2019-12-05 17:14:00
2 1958-04-13 12:00:00 Temperatura 8.1 del 13-04-1958 10:00, Menor que la Mínima 8.2 13-04-1958 12:00 8.1 -- 8.2 2019-12-06 15:46:00
2 1958-04-21 12:00:00 Temperatura 9.4 del 21-04-1958 12:00, Menor que la Mínima 9.5 21-04-1958 12:00 9.4 -- 9.5 2019-12-06 19:19:00
2 1958-04-22 12:00:00 Temperatura 6.8 del 22-04-1958 10:00, Menor que la Mínima 6.9 22-04-1958 12:00 6.8 -- 6.9 2019-12-09 12:37:00
2 1958-04-27 12:00:00 Temperatura 6.6 del 27-04-1958 12:00, Menor que la Mínima 7.0 27-04-1958 12:00 6.6 -- 7.0 2019-12-09 13:41:00
2 1958-04-30 12:00:00 Temperatura 12.8 del 30-04-1958 06:00, Menor que la Mínima 13.3 30-04-1958 12:00 12.8 -- 13.3 2019-12-09 14:28:00
2 1958-05-14 12:00:00 Temperatura 10.9 del 14-05-1958 10:00, Menor que la Mínima 11.3 14-05-1958 12:00 10.9 -- 11.3 2019-12-09 19:58:00
2 1958-05-19 12:00:00 Temperatura 8.0 del 19-05-1958 10:00, Menor que la Mínima 8.2 19-05-1958 12:00 8.0 -- 8.2 2019-12-10 13:59:00
2 1958-05-28 12:00:00 Temperatura 9.8 del 28-05-1958 06:00, Menor que la Mínima 10.2 28-05-1958 12:00 9.8 -- 10.2 2019-12-10 17:44:00
2 1958-06-11 12:00:00 Temperatura 9.4 del 11-06-1958 06:00, Menor que la Mínima 10.0 11-06-1958 12:00 9.4 -- 10.0 2019-12-11 19:07:00
2 1958-10-21 12:00:00 Temperatura 10.0 del 21-10-1958 09:00, Menor que la Mínima 10.4 21-10-1958 12:00 10.0 -- 10.4 2020-01-03 12:25:00
2 1959-03-13 12:00:00 Temperatura 1.4 del 13-03-1959 10:00, Menor que la Mínima 10.0 13-03-1959 12:00 1.4 -- 10.0 2019-12-10 15:22:00
2 1959-05-22 12:00:00 Temperatura 1.1 del 22-05-1959 06:00, Menor que la Mínima 6.9 22-05-1959 12:00 1.1 -- 6.9 2019-12-17 14:56:00
2 1959-06-17 12:00:00 Temperatura 7.7 del 17-06-1959 06:00, Menor que la Mínima 8.1 17-06-1959 12:00 7.7 -- 8.1 2019-12-18 20:14:00
2 1959-07-03 12:00:00 Temperatura 9.6 del 03-07-1959 11:00, Menor que la Mínima 9.8 03-07-1959 12:00 9.6 -- 9.8 2019-12-23 17:53:00
2 1959-07-19 12:00:00 Temperatura 9.6 del 19-07-1959 06:00, Menor que la Mínima 9.7 19-07-1959 12:00 9.6 -- 9.7 2019-12-27 15:05:00
2 1959-10-19 12:00:00 Temperatura 8.6 del 19-10-1959 11:00, Menor que la Mínima 9.2 19-10-1959 12:00 8.6 -- 9.2 2020-01-07 19:19:00
2 1959-11-15 12:00:00 Temperatura 10.2 del 15-11-1959 06:00, Menor que la Mínima 10.4 15-11-1959 12:00 10.2 -- 10.4 2020-01-10 12:43:00
2 1960-04-02 12:00:00 Temperatura 12.2 del 02-04-1960 12:00, Menor que la Mínima 12.6 02-04-1960 12:00 12.2 -- 12.6 2019-12-16 15:43:00
2 1960-04-28 12:00:00 Temperatura 11.4 del 28-04-1960 11:00, Menor que la Mínima 11.5 28-04-1960 12:00 11.4 -- 11.5 2019-12-17 17:01:00
2 1960-06-19 12:00:00 Temperatura 10.6 del 19-06-1960 06:00, Menor que la Mínima 11.2 19-06-1960 12:00 10.6 -- 11.2 2019-12-20 17:35:00
2 1960-09-11 12:00:00 Temperatura 3.8 del 11-09-1960 11:00, Menor que la Mínima 4.0 11-09-1960 12:00 3.8 -- 4.0 2020-01-06 17:31:00
2 1960-10-20 12:00:00 Temperatura 9.8 del 20-10-1960 10:00, Menor que la Mínima 10.1 20-10-1960 12:00 9.8 -- 10.1 2020-01-08 15:33:00
2 1964-01-18 12:00:00 Temperatura 13.4 del 18-01-1964 06:00, Menor que la Mínima 13.8 18-01-1964 12:00 13.4 -- 13.8 2020-11-13 18:21:00
2 1964-02-25 12:00:00 Temperatura 13.2 del 25-02-1964 12:00, Menor que la Mínima 14.4 25-02-1964 12:00 13.2 -- 14.4 2020-11-13 18:24:00
2 1964-04-15 12:00:00 Temperatura 1.5 del 15-04-1964 06:00, Menor que la Mínima 5.1 15-04-1964 12:00 1.5 -- 5.1 2020-11-13 18:35:00
2 1964-06-02 12:00:00 Temperatura 9.8 del 02-06-1964 06:00, Menor que la Mínima 10.0 02-06-1964 12:00 9.8 -- 10.0 2020-11-13 18:45:00
2 1965-02-23 12:00:00 Temperatura 12.0 del 23-02-1965 12:00, Menor que la Mínima 93.0 23-02-1965 12:00 12.0 -- 93.0 2020-11-13 19:39:00
2 1965-04-09 12:00:00 Temperatura 10.8 del 09-04-1965 12:00, Menor que la Mínima 14.3 09-04-1965 12:00 10.8 -- 14.3 2020-11-13 19:45:00
2 1966-11-30 12:00:00 Temperatura 12.8 del 30-11-1966 12:00, Menor que la Mínima 13.0 30-11-1966 12:00 12.8 -- 13.0 2020-11-16 13:04:00
2 1967-05-27 12:00:00 Temperatura 9.2 del 27-05-1967 06:00, Menor que la Mínima 9.7 27-05-1967 12:00 9.2 -- 9.7 2020-11-16 13:39:00
2 1967-06-16 12:00:00 Temperatura 9.4 del 16-06-1967 06:00, Menor que la Mínima 10.2 16-06-1967 12:00 9.4 -- 10.2 2020-11-16 13:41:00
2 1967-06-20 12:00:00 Temperatura 5.7 del 20-06-1967 06:00, Menor que la Mínima 6.4 20-06-1967 12:00 5.7 -- 6.4 2020-11-16 13:41:00
2 1967-08-11 12:00:00 Temperatura 8.0 del 11-08-1967 06:00, Menor que la Mínima 8.8 11-08-1967 12:00 8.0 -- 8.8 2020-11-16 14:34:00
2 1967-09-17 12:00:00 Temperatura 0.3 del 17-09-1967 12:00, Menor que la Mínima 0.4 17-09-1967 12:00 0.3 -- 0.4 2020-11-16 14:44:00
2 1967-09-20 12:00:00 Temperatura 3.5 del 20-09-1967 12:00, Menor que la Mínima 10.3 20-09-1967 12:00 3.5 -- 10.3 2020-11-16 14:45:00
2 1967-10-10 12:00:00 Temperatura 8.1 del 10-10-1967 06:00, Menor que la Mínima 8.4 10-10-1967 12:00 8.1 -- 8.4 2020-11-16 15:05:00
2 1967-12-24 12:00:00 Temperatura 12.4 del 24-12-1967 06:00, Menor que la Mínima 12.8 24-12-1967 12:00 12.4 -- 12.8 2020-11-16 15:19:00
2 1954-08-18 15:00:00 Variación horaria de Intensidad del viento fuera de rango (1 hora Antes) 33 - 2 2020-02-21 15:07:00
2 1957-08-22 13:00:00 Variación horaria de Intensidad del viento fuera de rango (1 hora Antes) 12 - 45 2020-01-13 19:29:00
2 1959-06-18 19:00:00 Variación horaria de Intensidad del viento fuera de rango (1 hora Antes) 60 - 20 2019-12-19 12:57:00
Errores del Nivel 164
Informe generado el 23-02-2024 10:55
Requerimiento: RE6001